Wetterdaten: Mittwoch, 28.11.2018
Datum Zeit Temp. Aussen Temp. o. S. +5cm Feuchte Auss Luftdruck Regen Sonnenschein Regendauer Solar Windben Empfang
28.11.2018 00:00 1,9 C 1,1 C 0,6 C 86 % 1018,8 hPa 0,0 l/m 0 min 0 min 0 W/m 19,3 km/h (3 Bft) 97,87 %
28.11.2018 00:02 1,9 C 1,1 C 0,6 C 86 % 1018,8 hPa 0,0 l/m 0 min 0 min 0 W/m 16,1 km/h (3 Bft) 95,12 %
28.11.2018 00:04 1,9 C 1,1 C 0,6 C 86 % 1018,8 hPa 0,0 l/m 0 min 0 min 0 W/m 25,7 km/h (4 Bft) 97,96 %
28.11.2018 00:08 1,9 C 1,1 C 0,6 C 86 % 1018,7 hPa 0,0 l/m 0 min 0 min 0 W/m 25,7 km/h (4 Bft) 98,94 %
28.11.2018 00:10 1,9 C 1,1 C 0,6 C 86 % 1018,8 hPa 0,0 l/m 0 min 0 min 0 W/m 19,3 km/h (3 Bft) 95,65 %
28.11.2018 00:12 1,9 C 1,1 C 0,6 C 86 % 1018,7 hPa 0,0 l/m 0 min 0 min 0 W/m 22,5 km/h (4 Bft) 95,74 %
28.11.2018 00:14 1,9 C 1,1 C 0,6 C 86 % 1018,7 hPa 0,0 l/m 0 min 0 min 0 W/m 16,1 km/h (3 Bft) 97,87 %
28.11.2018 00:16 1,8 C 1,1 C 0,6 C 86 % 1018,7 hPa 0,0 l/m 0 min 0 min 0 W/m 22,5 km/h (4 Bft) 97,87 %
28.11.2018 00:18 1,8 C 1,1 C 0,6 C 86 % 1018,6 hPa 0,0 l/m 0 min 0 min 0 W/m 19,3 km/h (3 Bft) 97,87 %
28.11.2018 00:20 1,8 C 1,1 C 0,6 C 86 % 1018,7 hPa 0,0 l/m 0 min 0 min 0 W/m 29,0 km/h (5 Bft) 97,87 %
28.11.2018 00:22 1,8 C 1,1 C 0,6 C 86 % 1018,7 hPa 0,0 l/m 0 min 0 min 0 W/m 25,7 km/h (4 Bft) 97,83 %
28.11.2018 00:24 1,8 C 1,1 C 0,6 C 87 % 1018,7 hPa 0,0 l/m 0 min 0 min 0 W/m 25,7 km/h (4 Bft) 97,87 %
28.11.2018 00:26 1,8 C 1,1 C 0,6 C 87 % 1018,7 hPa 0,0 l/m 0 min 0 min 0 W/m 22,5 km/h (4 Bft) 97,87 %
28.11.2018 00:28 1,8 C 1,1 C 0,6 C 87 % 1018,6 hPa 0,0 l/m 0 min 0 min 0 W/m 19,3 km/h (3 Bft) 97,87 %
28.11.2018 00:30 1,8 C 1,1 C 0,6 C 87 % 1018,6 hPa 0,0 l/m 0 min 0 min 0 W/m 22,5 km/h (4 Bft) 97,87 %
28.11.2018 00:32 1,8 C 1,1 C 0,6 C 87 % 1018,6 hPa 0,0 l/m 0 min 0 min 0 W/m 12,9 km/h (3 Bft) 97,87 %
28.11.2018 00:34 1,8 C 1,1 C 0,6 C 87 % 1018,7 hPa 0,0 l/m 0 min 0 min 0 W/m 12,9 km/h (3 Bft) 97,83 %
28.11.2018 00:36 1,8 C 1,1 C 0,6 C 87 % 1018,7 hPa 0,0 l/m 0 min 0 min 0 W/m 25,7 km/h (4 Bft) 97,87 %
28.11.2018 00:38 1,8 C 1,1 C 0,6 C 87 % 1018,6 hPa 0,0 l/m 0 min 0 min 0 W/m 19,3 km/h (3 Bft) 97,92 %
28.11.2018 00:40 1,8 C 1,1 C 0,6 C 87 % 1018,6 hPa 0,0 l/m 0 min 0 min 0 W/m 12,9 km/h (3 Bft) 97,83 %
28.11.2018 00:42 1,8 C 1,1 C 0,6 C 87 % 1018,6 hPa 0,0 l/m 0 min 0 min 0 W/m 12,9 km/h (3 Bft) 95,74 %
28.11.2018 00:44 1,8 C 1,1 C 0,6 C 87 % 1018,6 hPa 0,0 l/m 0 min 0 min 0 W/m 12,9 km/h (3 Bft) 97,87 %
28.11.2018 00:46 1,7 C 1,1 C 0,6 C 87 % 1018,5 hPa 0,0 l/m 0 min 0 min 0 W/m 12,9 km/h (3 Bft) 97,87 %
28.11.2018 00:48 1,7 C 1,1 C 0,6 C 87 % 1018,5 hPa 0,0 l/m 0 min 0 min 0 W/m 16,1 km/h (3 Bft) 97,87 %
28.11.2018 00:50 1,7 C 1,1 C 0,6 C 87 % 1018,5 hPa 0,0 l/m 0 min 0 min 0 W/m 19,3 km/h (3 Bft) 97,87 %
28.11.2018 00:52 1,7 C 1,1 C 0,6 C 87 % 1018,4 hPa 0,0 l/m 0 min 0 min 0 W/m 12,9 km/h (3 Bft) 97,83 %
28.11.2018 00:54 1,7 C 1,1 C 0,6 C 87 % 1018,5 hPa 0,0 l/m 0 min 0 min 0 W/m 16,1 km/h (3 Bft) 100,00 %
28.11.2018 00:56 1,7 C 1,1 C 0,6 C 87 % 1018,4 hPa 0,0 l/m 0 min 0 min 0 W/m 22,5 km/h (4 Bft) 100,00 %
28.11.2018 00:58 1,7 C 1,1 C 0,6 C 87 % 1018,4 hPa 0,0 l/m 0 min 0 min 0 W/m 22,5 km/h (4 Bft) 100,00 %
28.11.2018 01:00 1,7 C 1,1 C 0,6 C 87 % 1018,3 hPa 0,0 l/m 0 min 0 min 0 W/m 16,1 km/h (3 Bft) 100,00 %
28.11.2018 01:02 1,7 C 1,1 C 0,6 C 87 % 1018,2 hPa 0,0 l/m 0 min 0 min 0 W/m 22,5 km/h (4 Bft) 100,00 %
28.11.2018 01:04 1,7 C 1,1 C 0,6 C 87 % 1018,3 hPa 0,0 l/m 0 min 0 min 0 W/m 16,1 km/h (3 Bft) 100,00 %
28.11.2018 01:06 1,7 C 1,1 C 0,6 C 87 % 1018,3 hPa 0,0 l/m 0 min 0 min 0 W/m 22,5 km/h (4 Bft) 100,00 %
28.11.2018 01:08 1,7 C 1,1 C 0,6 C 87 % 1018,3 hPa 0,0 l/m 0 min 0 min 0 W/m 29,0 km/h (5 Bft) 95,74 %
28.11.2018 01:10 1,7 C 1,1 C 0,6 C 87 % 1018,3 hPa 0,0 l/m 0 min 0 min 0 W/m 16,1 km/h (3 Bft) 100,00 %
28.11.2018 01:12 1,7 C 1,1 C 0,6 C 87 % 1018,3 hPa 0,0 l/m 0 min 0 min 0 W/m 19,3 km/h (3 Bft) 97,87 %
28.11.2018 01:14 1,7 C 1,1 C 0,6 C 87 % 1018,2 hPa 0,0 l/m 0 min 0 min 0 W/m 22,5 km/h (4 Bft) 100,00 %
28.11.2018 01:16 1,7 C 1,1 C 0,6 C 87 % 1018,1 hPa 0,0 l/m 0 min 0 min 0 W/m 19,3 km/h (3 Bft) 100,00 %
28.11.2018 01:18 1,7 C 1,1 C 0,6 C 87 % 1018,2 hPa 0,0 l/m 0 min 0 min 0 W/m 12,9 km/h (3 Bft) 100,00 %
28.11.2018 01:20 1,7 C 1,1 C 0,6 C 87 % 1018,1 hPa 0,0 l/m 0 min 0 min 0 W/m 32,2 km/h (5 Bft) 97,87 %
28.11.2018 01:22 1,7 C 1,1 C 0,6 C 87 % 1018,0 hPa 0,0 l/m 0 min 0 min 0 W/m 32,2 km/h (5 Bft) 100,00 %
28.11.2018 01:24 1,7 C 1,1 C 0,6 C 87 % 1018,0 hPa 0,0 l/m 0 min 0 min 0 W/m 22,5 km/h (4 Bft) 100,00 %
28.11.2018 01:26 1,7 C 1,1 C 0,6 C 87 % 1017,9 hPa 0,0 l/m 0 min 0 min 0 W/m 19,3 km/h (3 Bft) 100,00 %
28.11.2018 01:28 1,7 C 1,1 C 0,6 C 87 % 1017,8 hPa 0,0 l/m 0 min 0 min 0 W/m 29,0 km/h (5 Bft) 100,00 %
28.11.2018 01:30 1,8 C 1,7 C 0,6 C 87 % 1017,8 hPa 0,0 l/m 0 min 0 min 0 W/m 32,2 km/h (5 Bft) 100,00 %
28.11.2018 01:32 1,8 C 1,1 C 0,6 C 87 % 1017,8 hPa 0,0 l/m 0 min 0 min 0 W/m 29,0 km/h (5 Bft) 100,00 %
28.11.2018 01:34 1,8 C 1,1 C 0,6 C 87 % 1017,8 hPa 0,0 l/m 0 min 0 min 0 W/m 19,3 km/h (3 Bft) 100,00 %
28.11.2018 01:36 1,8 C 1,1 C 0,6 C 87 % 1017,9 hPa 0,0 l/m 0 min 0 min 0 W/m 22,5 km/h (4 Bft) 100,00 %
28.11.2018 01:38 1,8 C 1,1 C 0,6 C 87 % 1017,8 hPa 0,0 l/m 0 min 0 min 0 W/m 12,9 km/h (3 Bft) 100,00 %
28.11.2018 01:40 1,8 C 1,1 C 0,6 C 88 % 1017,9 hPa 0,0 l/m 0 min 0 min 0 W/m 12,9 km/h (3 Bft) 100,00 %
28.11.2018 01:42 1,8 C 1,1 C 0,6 C 88 % 1017,9 hPa 0,0 l/m 0 min 0 min 0 W/m 12,9 km/h (3 Bft) 100,00 %
28.11.2018 01:44 1,8 C 1,1 C 0,6 C 88 % 1017,9 hPa 0,0 l/m 0 min 0 min 0 W/m 16,1 km/h (3 Bft) 100,00 %
28.11.2018 01:46 1,8 C 1,1 C 0,6 C 88 % 1017,9 hPa 0,0 l/m 0 min 0 min 0 W/m 12,9 km/h (3 Bft) 97,87 %
28.11.2018 01:48 1,8 C 1,1 C 0,6 C 87 % 1017,9 hPa 0,0 l/m 0 min 0 min 0 W/m 22,5 km/h (4 Bft) 97,87 %
28.11.2018 01:50 1,8 C 1,1 C 0,6 C 87 % 1017,9 hPa 0,0 l/m 0 min 0 min 0 W/m 19,3 km/h (3 Bft) 97,83 %
28.11.2018 01:52 1,8 C 1,1 C 0,6 C 87 % 1017,8 hPa 0,0 l/m 0 min 0 min 0 W/m 22,5 km/h (4 Bft) 95,74 %
28.11.2018 01:54 1,8 C 1,1 C 0,6 C 88 % 1017,8 hPa 0,0 l/m 0 min 0 min 0 W/m 12,9 km/h (3 Bft) 97,87 %
28.11.2018 01:56 1,8 C 1,1 C 0,6 C 88 % 1017,8 hPa 0,0 l/m 0 min 0 min 0 W/m 22,5 km/h (4 Bft) 97,87 %
28.11.2018 01:58 1,8 C 1,1 C 0,6 C 88 % 1017,8 hPa 0,0 l/m 0 min 0 min 0 W/m 19,3 km/h (3 Bft) 97,87 %
28.11.2018 02:00 1,8 C 1,1 C 0,6 C 88 % 1017,8 hPa 0,0 l/m 0 min 0 min 0 W/m 29,0 km/h (5 Bft) 95,74 %
28.11.2018 02:02 1,8 C 1,1 C 0,6 C 88 % 1017,9 hPa 0,0 l/m 0 min 0 min 0 W/m 16,1 km/h (3 Bft) 97,83 %
28.11.2018 02:04 1,8 C 1,1 C 0,6 C 88 % 1017,9 hPa 0,0 l/m 0 min 0 min 0 W/m 19,3 km/h (3 Bft) 95,74 %
28.11.2018 02:06 1,8 C 1,1 C 0,6 C 88 % 1017,7 hPa 0,0 l/m 0 min 0 min 0 W/m 19,3 km/h (3 Bft) 97,87 %
28.11.2018 02:08 1,8 C 1,1 C 0,6 C 88 % 1017,7 hPa 0,0 l/m 0 min 0 min 0 W/m 19,3 km/h (3 Bft) 97,87 %
28.11.2018 02:10 1,8 C 1,1 C 0,6 C 88 % 1017,7 hPa 0,0 l/m 0 min 0 min 0 W/m 19,3 km/h (3 Bft) 95,74 %
28.11.2018 02:12 1,8 C 1,7 C 0,6 C 88 % 1017,7 hPa 0,0 l/m 0 min 0 min 0 W/m 12,9 km/h (3 Bft) 95,74 %
28.11.2018 02:14 1,8 C 1,7 C 0,6 C 88 % 1017,7 hPa 0,0 l/m 0 min 0 min 0 W/m 16,1 km/h (3 Bft) 95,65 %
28.11.2018 02:16 1,8 C 1,7 C 0,6 C 88 % 1017,8 hPa 0,0 l/m 0 min 0 min 0 W/m 16,1 km/h (3 Bft) 93,62 %
28.11.2018 02:18 1,8 C 1,7 C 0,6 C 88 % 1017,8 hPa 0,0 l/m 0 min 0 min 0 W/m 25,7 km/h (4 Bft) 95,74 %
28.11.2018 02:20 1,8 C 1,7 C 1,1 C 88 % 1017,8 hPa 0,0 l/m 0 min 0 min 0 W/m 16,1 km/h (3 Bft) 95,74 %
28.11.2018 02:22 1,8 C 1,7 C 1,1 C 88 % 1017,7 hPa 0,0 l/m 0 min 0 min 0 W/m 22,5 km/h (4 Bft) 93,62 %
28.11.2018 02:24 1,9 C 1,7 C 1,1 C 88 % 1017,8 hPa 0,0 l/m 0 min 0 min 0 W/m 25,7 km/h (4 Bft) 95,74 %
28.11.2018 02:26 1,9 C 1,7 C 1,1 C 88 % 1017,8 hPa 0,0 l/m 0 min 0 min 0 W/m 25,7 km/h (4 Bft) 93,48 %
28.11.2018 02:28 1,9 C 1,7 C 1,1 C 88 % 1017,8 hPa 0,0 l/m 0 min 0 min 0 W/m 25,7 km/h (4 Bft) 93,62 %
28.11.2018 02:30 1,9 C 1,7 C 1,1 C 88 % 1017,9 hPa 0,0 l/m 0 min 0 min 0 W/m 12,9 km/h (3 Bft) 95,74 %
28.11.2018 02:32 1,9 C 1,7 C 1,1 C 88 % 1017,8 hPa 0,0 l/m 0 min 0 min 0 W/m 16,1 km/h (3 Bft) 95,74 %
28.11.2018 02:34 1,9 C 1,7 C 1,1 C 88 % 1017,8 hPa 0,0 l/m 0 min 0 min 0 W/m 22,5 km/h (4 Bft) 93,62 %
28.11.2018 02:36 1,9 C 1,7 C 0,6 C 88 % 1017,8 hPa 0,0 l/m 0 min 0 min 0 W/m 12,9 km/h (3 Bft) 97,87 %
28.11.2018 02:38 1,9 C 1,7 C 1,1 C 88 % 1017,9 hPa 0,0 l/m 0 min 0 min 0 W/m 22,5 km/h (4 Bft) 95,65 %
28.11.2018 02:40 1,9 C 1,7 C 0,6 C 88 % 1017,9 hPa 0,0 l/m 0 min 0 min 0 W/m 16,1 km/h (3 Bft) 95,74 %
28.11.2018 02:42 1,9 C 1,7 C 0,6 C 88 % 1017,7 hPa 0,0 l/m 0 min 0 min 0 W/m 19,3 km/h (3 Bft) 95,74 %
28.11.2018 02:44 1,9 C 1,7 C 0,6 C 88 % 1017,7 hPa 0,0 l/m 0 min 0 min 0 W/m 16,1 km/h (3 Bft) 93,62 %
28.11.2018 02:46 1,9 C 1,1 C 0,6 C 88 % 1017,7 hPa 0,0 l/m 0 min 0 min 0 W/m 16,1 km/h (3 Bft) 97,87 %
28.11.2018 02:48 1,9 C 1,7 C 0,6 C 88 % 1017,8 hPa 0,0 l/m 0 min 0 min 0 W/m 22,5 km/h (4 Bft) 95,74 %
28.11.2018 02:50 1,9 C 1,7 C 1,1 C 88 % 1017,8 hPa 0,0 l/m 0 min 0 min 0 W/m 16,1 km/h (3 Bft) 93,48 %
28.11.2018 02:52 1,9 C 1,7 C 1,1 C 88 % 1017,8 hPa 0,0 l/m 0 min 0 min 0 W/m 22,5 km/h (4 Bft) 95,74 %
28.11.2018 02:54 1,9 C 1,7 C 1,1 C 88 % 1017,8 hPa 0,0 l/m 0 min 0 min 0 W/m 16,1 km/h (3 Bft) 95,74 %
28.11.2018 02:56 1,9 C 1,7 C 1,1 C 88 % 1017,8 hPa 0,0 l/m 0 min 0 min 0 W/m 25,7 km/h (4 Bft) 93,62 %
28.11.2018 02:58 1,9 C 1,7 C 1,1 C 88 % 1017,8 hPa 0,0 l/m 0 min 0 min 0 W/m 16,1 km/h (3 Bft) 95,74 %
28.11.2018 03:00 1,9 C 1,7 C 1,1 C 88 % 1017,8 hPa 0,0 l/m 0 min 0 min 0 W/m 19,3 km/h (3 Bft) 95,65 %
28.11.2018 03:02 1,9 C 1,7 C 1,1 C 88 % 1017,8 hPa 0,0 l/m 0 min 0 min 0 W/m 22,5 km/h (4 Bft) 95,74 %
28.11.2018 03:04 1,9 C 1,7 C 1,1 C 88 % 1017,8 hPa 0,0 l/m 0 min 0 min 0 W/m 19,3 km/h (3 Bft) 93,62 %
28.11.2018 03:06 1,9 C 1,7 C 1,1 C 88 % 1017,8 hPa 0,0 l/m 0 min 0 min 0 W/m 16,1 km/h (3 Bft) 95,74 %
28.11.2018 03:08 2,0 C 1,7 C 1,1 C 88 % 1017,8 hPa 0,0 l/m 0 min 0 min 0 W/m 19,3 km/h (3 Bft) 95,74 %
28.11.2018 03:10 2,0 C 1,7 C 1,1 C 88 % 1017,7 hPa 0,0 l/m 0 min 0 min 0 W/m 22,5 km/h (4 Bft) 95,74 %
28.11.2018 03:12 2,0 C 1,7 C 1,1 C 88 % 1017,7 hPa 0,0 l/m 0 min 0 min 0 W/m 19,3 km/h (3 Bft) 97,83 %
28.11.2018 03:14 2,0 C 1,7 C 1,1 C 88 % 1017,8 hPa 0,0 l/m 0 min 0 min 0 W/m 19,3 km/h (3 Bft) 97,87 %
28.11.2018 03:16 2,0 C 1,7 C 1,1 C 88 % 1017,7 hPa 0,0 l/m 0 min 0 min 0 W/m 22,5 km/h (4 Bft) 93,62 %
28.11.2018 03:18 2,0 C 1,7 C 1,1 C 88 % 1017,7 hPa 0,0 l/m 0 min 0 min 0 W/m 16,1 km/h (3 Bft) 97,87 %
28.11.2018 03:20 2,0 C 1,7 C 1,1 C 88 % 1017,8 hPa 0,0 l/m 0 min 0 min 0 W/m 16,1 km/h (3 Bft) 97,87 %
28.11.2018 03:22 2,0 C 1,7 C 1,1 C 88 % 1017,7 hPa 0,0 l/m 0 min 0 min 0 W/m 16,1 km/h (3 Bft) 97,87 %
28.11.2018 03:24 2,1 C 1,7 C 1,1 C 88 % 1017,7 hPa 0,0 l/m 0 min 0 min 0 W/m 22,5 km/h (4 Bft) 95,65 %
28.11.2018 03:26 2,1 C 1,7 C 1,1 C 88 % 1017,7 hPa 0,0 l/m 0 min 0 min 0 W/m 25,7 km/h (4 Bft) 97,87 %
28.11.2018 03:28 2,1 C 1,7 C 1,1 C 88 % 1017,7 hPa 0,0 l/m 0 min 0 min 0 W/m 22,5 km/h (4 Bft) 95,74 %
28.11.2018 03:30 2,1 C 1,7 C 1,1 C 88 % 1017,7 hPa 0,0 l/m 0 min 0 min 0 W/m 29,0 km/h (5 Bft) 95,74 %
28.11.2018 03:32 2,1 C 1,7 C 1,1 C 88 % 1017,6 hPa 0,0 l/m 0 min 0 min 0 W/m 22,5 km/h (4 Bft) 97,87 %
28.11.2018 03:34 2,1 C 1,7 C 1,1 C 88 % 1017,7 hPa 0,0 l/m 0 min 0 min 0 W/m 22,5 km/h (4 Bft) 100,00 %
28.11.2018 03:36 2,1 C 1,7 C 1,1 C 88 % 1017,6 hPa 0,0 l/m 0 min 0 min 0 W/m 16,1 km/h (3 Bft) 100,00 %
28.11.2018 03:38 2,1 C 1,7 C 1,1 C 88 % 1017,6 hPa 0,0 l/m 0 min 0 min 0 W/m 25,7 km/h (4 Bft) 100,00 %
28.11.2018 03:40 2,2 C 1,7 C 1,1 C 88 % 1017,6 hPa 0,0 l/m 0 min 0 min 0 W/m 22,5 km/h (4 Bft) 100,00 %
28.11.2018 03:42 2,1 C 1,7 C 1,1 C 88 % 1017,6 hPa 0,0 l/m 0 min 0 min 0 W/m 25,7 km/h (4 Bft) 100,00 %
28.11.2018 03:44 2,2 C 1,7 C 1,1 C 88 % 1017,5 hPa 0,0 l/m 0 min 0 min 0 W/m 29,0 km/h (5 Bft) 100,00 %
28.11.2018 03:46 2,2 C 1,7 C 1,1 C 89 % 1017,6 hPa 0,0 l/m 0 min 0 min 0 W/m 19,3 km/h (3 Bft) 97,87 %
28.11.2018 03:48 2,2 C 1,7 C 1,1 C 89 % 1017,5 hPa 0,2 l/m 0 min 0 min 0 W/m 29,0 km/h (5 Bft) 97,83 %
28.11.2018 03:50 2,2 C 1,7 C 1,1 C 89 % 1017,6 hPa 0,0 l/m 0 min 0 min 0 W/m 25,7 km/h (4 Bft) 100,00 %
28.11.2018 03:52 2,2 C 1,7 C 1,1 C 89 % 1017,5 hPa 0,0 l/m 0 min 0 min 0 W/m 19,3 km/h (3 Bft) 97,87 %
28.11.2018 03:54 2,2 C 1,7 C 1,1 C 88 % 1017,5 hPa 0,0 l/m 0 min 0 min 0 W/m 25,7 km/h (4 Bft) 100,00 %
28.11.2018 03:56 2,2 C 1,7 C 1,1 C 89 % 1017,5 hPa 0,0 l/m 0 min 0 min 0 W/m 19,3 km/h (3 Bft) 97,87 %
28.11.2018 03:58 2,3 C 2,2 C 1,1 C 89 % 1017,5 hPa 0,0 l/m 0 min 0 min 0 W/m 12,9 km/h (3 Bft) 100,00 %
28.11.2018 04:00 2,3 C 1,7 C 1,1 C 89 % 1017,4 hPa 0,0 l/m 0 min 0 min 0 W/m 22,5 km/h (4 Bft) 100,00 %
28.11.2018 04:02 2,3 C 1,7 C 1,1 C 89 % 1017,5 hPa 0,0 l/m 0 min 0 min 0 W/m 16,1 km/h (3 Bft) 100,00 %
28.11.2018 04:04 2,3 C 2,2 C 1,1 C 89 % 1017,6 hPa 0,0 l/m 0 min 0 min 0 W/m 25,7 km/h (4 Bft) 97,87 %
28.11.2018 04:06 2,3 C 2,2 C 1,1 C 89 % 1017,5 hPa 0,0 l/m 0 min 0 min 0 W/m 16,1 km/h (3 Bft) 100,00 %
28.11.2018 04:08 2,3 C 2,2 C 1,1 C 89 % 1017,5 hPa 0,0 l/m 0 min 0 min 0 W/m 19,3 km/h (3 Bft) 100,00 %
28.11.2018 04:10 2,3 C 2,2 C 1,1 C 89 % 1017,6 hPa 0,0 l/m 0 min 0 min 0 W/m 16,1 km/h (3 Bft) 96,30 %
28.11.2018 04:12 2,3 C 2,2 C 1,1 C 89 % 1017,6 hPa 0,0 l/m 0 min 0 min 0 W/m 19,3 km/h (3 Bft) 93,62 %
28.11.2018 04:14 2,3 C 2,2 C 1,1 C 89 % 1017,6 hPa 0,0 l/m 0 min 0 min 0 W/m 12,9 km/h (3 Bft) 100,00 %
28.11.2018 04:16 2,3 C 2,2 C 1,1 C 89 % 1017,6 hPa 0,0 l/m 0 min 0 min 0 W/m 19,3 km/h (3 Bft) 100,00 %
28.11.2018 04:18 2,3 C 2,2 C 1,1 C 89 % 1017,6 hPa 0,0 l/m 0 min 0 min 0 W/m 16,1 km/h (3 Bft) 100,00 %
28.11.2018 04:20 2,4 C 2,2 C 1,1 C 89 % 1017,5 hPa 0,0 l/m 0 min 0 min 0 W/m 19,3 km/h (3 Bft) 100,00 %
28.11.2018 04:22 2,4 C 2,2 C 1,7 C 89 % 1017,5 hPa 0,0 l/m 0 min 0 min 0 W/m 25,7 km/h (4 Bft) 100,00 %
28.11.2018 04:24 2,4 C 2,2 C 1,7 C 89 % 1017,5 hPa 0,0 l/m 0 min 0 min 0 W/m 19,3 km/h (3 Bft) 97,87 %
28.11.2018 04:26 2,4 C 2,2 C 1,7 C 89 % 1017,5 hPa 0,0 l/m 0 min 0 min 0 W/m 22,5 km/h (4 Bft) 97,87 %
28.11.2018 04:28 2,4 C 2,2 C 1,7 C 89 % 1017,6 hPa 0,0 l/m 0 min 0 min 0 W/m 22,5 km/h (4 Bft) 93,62 %
28.11.2018 04:30 2,4 C 2,2 C 1,7 C 89 % 1017,5 hPa 0,0 l/m 0 min 0 min 0 W/m 19,3 km/h (3 Bft) 97,87 %
28.11.2018 04:32 2,4 C 2,2 C 1,7 C 89 % 1017,5 hPa 0,0 l/m 0 min 0 min 0 W/m 25,7 km/h (4 Bft) 95,74 %
28.11.2018 04:34 2,5 C 2,2 C 1,7 C 89 % 1017,5 hPa 0,0 l/m 0 min 0 min 0 W/m 16,1 km/h (3 Bft) 97,83 %
28.11.2018 04:36 2,5 C 2,2 C 1,7 C 89 % 1017,4 hPa 0,0 l/m 0 min 0 min 0 W/m 16,1 km/h (3 Bft) 97,87 %
28.11.2018 04:38 2,5 C 2,2 C 1,7 C 89 % 1017,3 hPa 0,0 l/m 0 min 0 min 0 W/m 16,1 km/h (3 Bft) 97,87 %
28.11.2018 04:40 2,5 C 2,2 C 1,7 C 89 % 1017,3 hPa 0,0 l/m 0 min 0 min 0 W/m 22,5 km/h (4 Bft) 97,87 %
28.11.2018 04:42 2,5 C 2,2 C 1,7 C 89 % 1017,3 hPa 0,0 l/m 0 min 0 min 0 W/m 19,3 km/h (3 Bft) 97,87 %
28.11.2018 04:44 2,6 C 2,2 C 1,7 C 89 % 1017,3 hPa 0,0 l/m 0 min 0 min 0 W/m 32,2 km/h (5 Bft) 97,87 %
28.11.2018 04:46 2,6 C 2,2 C 1,7 C 89 % 1017,4 hPa 0,0 l/m 0 min 0 min 0 W/m 29,0 km/h (5 Bft) 93,48 %
28.11.2018 04:48 2,6 C 2,2 C 1,7 C 89 % 1017,4 hPa 0,0 l/m 0 min 0 min 0 W/m 25,7 km/h (4 Bft) 97,87 %
28.11.2018 04:50 2,6 C 2,2 C 1,7 C 89 % 1017,3 hPa 0,0 l/m 0 min 0 min 0 W/m 22,5 km/h (4 Bft) 95,74 %
28.11.2018 04:52 2,6 C 2,2 C 1,7 C 89 % 1017,4 hPa 0,0 l/m 0 min 0 min 0 W/m 22,5 km/h (4 Bft) 95,74 %
28.11.2018 04:54 2,6 C 2,2 C 1,7 C 89 % 1017,3 hPa 0,0 l/m 0 min 0 min 0 W/m 22,5 km/h (4 Bft) 97,87 %
28.11.2018 04:56 2,6 C 2,2 C 1,7 C 89 % 1017,3 hPa 0,0 l/m 0 min 0 min 0 W/m 32,2 km/h (5 Bft) 97,87 %
28.11.2018 04:58 2,6 C 2,2 C 1,7 C 89 % 1017,2 hPa 0,0 l/m 0 min 0 min 0 W/m 22,5 km/h (4 Bft) 97,83 %
28.11.2018 05:00 2,6 C 2,2 C 1,7 C 89 % 1017,1 hPa 0,0 l/m 0 min 0 min 0 W/m 16,1 km/h (3 Bft) 97,87 %
28.11.2018 05:02 2,6 C 2,2 C 1,7 C 89 % 1017,1 hPa 0,0 l/m 0 min 0 min 0 W/m 25,7 km/h (4 Bft) 95,74 %
28.11.2018 05:04 2,6 C 2,2 C 1,7 C 89 % 1017,1 hPa 0,0 l/m 0 min 0 min 0 W/m 19,3 km/h (3 Bft) 97,87 %
28.11.2018 05:06 2,6 C 2,2 C 1,7 C 89 % 1017,2 hPa 0,0 l/m 0 min 0 min 0 W/m 25,7 km/h (4 Bft) 97,87 %
28.11.2018 05:08 2,6 C 2,2 C 1,7 C 89 % 1017,2 hPa 0,0 l/m 0 min 0 min 0 W/m 25,7 km/h (4 Bft) 100,00 %
28.11.2018 05:10 2,6 C 2,2 C 1,7 C 89 % 1017,3 hPa 0,0 l/m 0 min 0 min 0 W/m 19,3 km/h (3 Bft) 100,00 %
28.11.2018 05:12 2,6 C 2,2 C 1,7 C 89 % 1017,3 hPa 0,0 l/m 0 min 0 min 0 W/m 25,7 km/h (4 Bft) 100,00 %
28.11.2018 05:14 2,6 C 2,2 C 1,7 C 89 % 1017,3 hPa 0,0 l/m 0 min 0 min 0 W/m 12,9 km/h (3 Bft) 97,87 %
28.11.2018 05:16 2,7 C 2,2 C 1,7 C 89 % 1017,3 hPa 0,0 l/m 0 min 0 min 0 W/m 16,1 km/h (3 Bft) 93,62 %
28.11.2018 05:18 2,7 C 2,2 C 1,7 C 89 % 1017,3 hPa 0,0 l/m 0 min 0 min 0 W/m 22,5 km/h (4 Bft) 97,87 %
28.11.2018 05:20 2,7 C 2,2 C 1,7 C 89 % 1017,3 hPa 0,0 l/m 0 min 0 min 0 W/m 25,7 km/h (4 Bft) 97,83 %
28.11.2018 05:22 2,7 C 2,2 C 1,7 C 89 % 1017,2 hPa 0,0 l/m 0 min 0 min 0 W/m 35,4 km/h (5 Bft) 100,00 %
28.11.2018 05:24 2,7 C 2,2 C 1,7 C 89 % 1017,3 hPa 0,0 l/m 0 min 0 min 0 W/m 12,9 km/h (3 Bft) 97,87 %
28.11.2018 05:26 2,7 C 2,2 C 1,7 C 89 % 1017,3 hPa 0,0 l/m 0 min 0 min 0 W/m 25,7 km/h (4 Bft) 97,87 %
28.11.2018 05:28 2,7 C 2,2 C 1,7 C 89 % 1017,3 hPa 0,0 l/m 0 min 0 min 0 W/m 29,0 km/h (5 Bft) 97,87 %
28.11.2018 05:30 2,7 C 2,2 C 1,7 C 89 % 1017,3 hPa 0,0 l/m 0 min 0 min 0 W/m 22,5 km/h (4 Bft) 100,00 %
28.11.2018 05:32 2,8 C 2,8 C 1,7 C 89 % 1017,3 hPa 0,0 l/m 0 min 0 min 0 W/m 22,5 km/h (4 Bft) 100,00 %
28.11.2018 05:34 2,8 C 2,2 C 1,7 C 89 % 1017,3 hPa 0,0 l/m 0 min 0 min 0 W/m 16,1 km/h (3 Bft) 100,00 %
28.11.2018 05:36 2,8 C 2,2 C 1,7 C 89 % 1017,2 hPa 0,0 l/m 0 min 0 min 0 W/m 16,1 km/h (3 Bft) 97,87 %
28.11.2018 05:38 2,8 C 2,2 C 1,7 C 89 % 1017,2 hPa 0,0 l/m 0 min 0 min 0 W/m 25,7 km/h (4 Bft) 97,87 %
28.11.2018 05:40 2,8 C 2,8 C 1,7 C 89 % 1017,2 hPa 0,0 l/m 0 min 0 min 0 W/m 25,7 km/h (4 Bft) 97,87 %
28.11.2018 05:42 2,8 C 2,2 C 1,7 C 89 % 1017,2 hPa 0,0 l/m 0 min 0 min 0 W/m 16,1 km/h (3 Bft) 95,74 %
28.11.2018 05:44 2,8 C 2,8 C 1,7 C 89 % 1017,2 hPa 0,0 l/m 0 min 0 min 0 W/m 25,7 km/h (4 Bft) 93,48 %
28.11.2018 05:46 2,9 C 2,8 C 1,7 C 89 % 1017,2 hPa 0,0 l/m 0 min 0 min 0 W/m 19,3 km/h (3 Bft) 93,62 %
28.11.2018 05:48 2,9 C 2,8 C 1,7 C 89 % 1017,2 hPa 0,0 l/m 0 min 0 min 0 W/m 32,2 km/h (5 Bft) 93,62 %
28.11.2018 05:50 2,9 C 2,8 C 1,7 C 89 % 1017,2 hPa 0,0 l/m 0 min 0 min 0 W/m 22,5 km/h (4 Bft) 95,74 %
28.11.2018 05:52 2,9 C 2,8 C 1,7 C 89 % 1017,2 hPa 0,0 l/m 0 min 0 min 0 W/m 16,1 km/h (3 Bft) 95,74 %
28.11.2018 05:54 2,9 C 2,8 C 1,7 C 89 % 1017,2 hPa 0,0 l/m 0 min 0 min 0 W/m 22,5 km/h (4 Bft) 95,74 %
28.11.2018 05:56 2,9 C 2,8 C 1,7 C 89 % 1017,2 hPa 0,0 l/m 0 min 0 min 0 W/m 35,4 km/h (5 Bft) 95,65 %
28.11.2018 05:58 2,9 C 2,8 C 1,7 C 89 % 1017,1 hPa 0,0 l/m 0 min 0 min 0 W/m 19,3 km/h (3 Bft) 95,74 %
28.11.2018 06:00 2,9 C 2,8 C 1,7 C 89 % 1017,2 hPa 0,0 l/m 0 min 0 min 0 W/m 19,3 km/h (3 Bft) 95,74 %
28.11.2018 06:02 2,9 C 2,8 C 1,7 C 89 % 1017,2 hPa 0,0 l/m 0 min 0 min 0 W/m 16,1 km/h (3 Bft) 95,74 %
28.11.2018 06:04 2,9 C 2,8 C 1,7 C 89 % 1017,1 hPa 0,0 l/m 0 min 0 min 0 W/m 29,0 km/h (5 Bft) 95,74 %
28.11.2018 06:08 3,0 C 2,8 C 2,2 C 89 % 1017,1 hPa 0,0 l/m 0 min 0 min 0 W/m 29,0 km/h (5 Bft) 95,70 %
28.11.2018 06:10 3,0 C 2,8 C 2,2 C 89 % 1017,1 hPa 0,0 l/m 0 min 0 min 0 W/m 22,5 km/h (4 Bft) 95,74 %
28.11.2018 06:12 3,0 C 2,8 C 2,2 C 89 % 1017,2 hPa 0,0 l/m 0 min 0 min 0 W/m 22,5 km/h (4 Bft) 95,74 %
28.11.2018 06:14 3,1 C 2,8 C 2,2 C 89 % 1017,1 hPa 0,0 l/m 0 min 0 min 0 W/m 32,2 km/h (5 Bft) 93,62 %
28.11.2018 06:16 3,1 C 2,8 C 2,2 C 89 % 1017,1 hPa 0,0 l/m 0 min 0 min 0 W/m 25,7 km/h (4 Bft) 95,74 %
28.11.2018 06:18 3,1 C 2,8 C 2,2 C 89 % 1017,1 hPa 0,0 l/m 0 min 0 min 0 W/m 25,7 km/h (4 Bft) 95,65 %
28.11.2018 06:20 3,1 C 2,8 C 2,2 C 89 % 1017,1 hPa 0,0 l/m 0 min 0 min 0 W/m 16,1 km/h (3 Bft) 95,74 %
28.11.2018 06:22 3,1 C 2,8 C 2,2 C 89 % 1017,1 hPa 0,0 l/m 0 min 0 min 0 W/m 19,3 km/h (3 Bft) 95,74 %
28.11.2018 06:24 3,2 C 2,8 C 2,2 C 89 % 1017,1 hPa 0,0 l/m 0 min 0 min 0 W/m 19,3 km/h (3 Bft) 97,87 %
28.11.2018 06:26 3,2 C 2,8 C 2,2 C 89 % 1017,1 hPa 0,0 l/m 0 min 0 min 0 W/m 22,5 km/h (4 Bft) 97,87 %
28.11.2018 06:28 3,2 C 2,8 C 2,2 C 89 % 1017,2 hPa 0,0 l/m 0 min 0 min 0 W/m 25,7 km/h (4 Bft) 97,87 %
28.11.2018 06:30 3,2 C 2,8 C 2,2 C 89 % 1017,2 hPa 0,0 l/m 0 min 0 min 0 W/m 22,5 km/h (4 Bft) 97,83 %
28.11.2018 06:32 3,2 C 2,8 C 2,2 C 89 % 1017,3 hPa 0,0 l/m 0 min 0 min 0 W/m 22,5 km/h (4 Bft) 97,87 %
28.11.2018 06:34 3,2 C 2,8 C 2,2 C 89 % 1017,3 hPa 0,0 l/m 0 min 0 min 0 W/m 25,7 km/h (4 Bft) 91,49 %
28.11.2018 06:36 3,2 C 2,8 C 2,2 C 89 % 1017,3 hPa 0,0 l/m 0 min 0 min 0 W/m 22,5 km/h (4 Bft) 97,87 %
28.11.2018 06:38 3,3 C 2,8 C 2,2 C 89 % 1017,3 hPa 0,0 l/m 0 min 0 min 0 W/m 16,1 km/h (3 Bft) 97,87 %
28.11.2018 06:40 3,3 C 2,8 C 2,2 C 89 % 1017,2 hPa 0,0 l/m 0 min 0 min 0 W/m 16,1 km/h (3 Bft) 97,87 %
28.11.2018 06:42 3,3 C 2,8 C 2,2 C 89 % 1017,2 hPa 0,0 l/m 0 min 0 min 0 W/m 25,7 km/h (4 Bft) 100,00 %
28.11.2018 06:44 3,3 C 2,8 C 2,2 C 89 % 1017,2 hPa 0,0 l/m 0 min 0 min 0 W/m 29,0 km/h (5 Bft) 95,74 %
28.11.2018 06:46 3,3 C 2,8 C 2,2 C 89 % 1017,3 hPa 0,0 l/m 0 min 0 min 0 W/m 25,7 km/h (4 Bft) 100,00 %
28.11.2018 06:48 3,3 C 2,8 C 2,2 C 89 % 1017,2 hPa 0,0 l/m 0 min 0 min 0 W/m 19,3 km/h (3 Bft) 97,87 %
28.11.2018 06:50 3,3 C 2,8 C 2,2 C 89 % 1017,2 hPa 0,0 l/m 0 min 0 min 0 W/m 16,1 km/h (3 Bft) 97,87 %
28.11.2018 06:52 3,4 C 2,8 C 2,2 C 89 % 1017,1 hPa 0,0 l/m 0 min 0 min 0 W/m 25,7 km/h (4 Bft) 100,00 %
28.11.2018 06:54 3,4 C 2,8 C 2,2 C 89 % 1017,1 hPa 0,0 l/m 0 min 0 min 0 W/m 22,5 km/h (4 Bft) 97,83 %
28.11.2018 06:56 3,4 C 2,8 C 2,2 C 89 % 1017,2 hPa 0,0 l/m 0 min 0 min 0 W/m 19,3 km/h (3 Bft) 100,00 %
28.11.2018 06:58 3,4 C 2,8 C 2,2 C 89 % 1017,1 hPa 0,0 l/m 0 min 0 min 0 W/m 22,5 km/h (4 Bft) 100,00 %
28.11.2018 07:00 3,4 C 2,8 C 2,2 C 89 % 1017,1 hPa 0,0 l/m 0 min 0 min 0 W/m 32,2 km/h (5 Bft) 95,74 %
28.11.2018 07:02 3,4 C 2,8 C 2,2 C 89 % 1017,1 hPa 0,0 l/m 0 min 0 min 0 W/m 25,7 km/h (4 Bft) 97,87 %
28.11.2018 07:04 3,4 C 2,8 C 2,2 C 89 % 1017,2 hPa 0,0 l/m 0 min 0 min 0 W/m 12,9 km/h (3 Bft) 95,74 %
28.11.2018 07:06 3,4 C 2,8 C 2,2 C 89 % 1017,2 hPa 0,0 l/m 0 min 0 min 0 W/m 25,7 km/h (4 Bft) 97,83 %
28.11.2018 07:08 3,4 C 2,8 C 2,2 C 89 % 1017,1 hPa 0,0 l/m 0 min 0 min 0 W/m 22,5 km/h (4 Bft) 97,87 %
28.11.2018 07:10 3,4 C 2,8 C 2,2 C 89 % 1017,1 hPa 0,0 l/m 0 min 0 min 0 W/m 19,3 km/h (3 Bft) 97,87 %
28.11.2018 07:12 3,4 C 2,8 C 2,2 C 89 % 1017,2 hPa 0,0 l/m 0 min 0 min 0 W/m 22,5 km/h (4 Bft) 97,87 %
28.11.2018 07:14 3,4 C 2,8 C 2,2 C 89 % 1017,2 hPa 0,0 l/m 0 min 0 min 0 W/m 25,7 km/h (4 Bft) 97,87 %
28.11.2018 07:16 3,4 C 2,8 C 2,2 C 89 % 1017,2 hPa 0,0 l/m 0 min 0 min 0 W/m 19,3 km/h (3 Bft) 97,83 %
28.11.2018 07:18 3,4 C 2,8 C 2,2 C 89 % 1017,2 hPa 0,0 l/m 0 min 0 min 0 W/m 22,5 km/h (4 Bft) 97,87 %
28.11.2018 07:20 3,4 C 2,8 C 2,2 C 89 % 1017,1 hPa 0,0 l/m 0 min 0 min 0 W/m 22,5 km/h (4 Bft) 97,87 %
28.11.2018 07:22 3,4 C 3,3 C 2,2 C 89 % 1017,2 hPa 0,0 l/m 0 min 0 min 0 W/m 29,0 km/h (5 Bft) 93,62 %
28.11.2018 07:24 3,4 C 3,3 C 2,2 C 89 % 1017,0 hPa 0,0 l/m 0 min 0 min 0 W/m 38,6 km/h (5 Bft) 97,87 %
28.11.2018 07:26 3,4 C 3,3 C 2,2 C 89 % 1017,0 hPa 0,0 l/m 0 min 0 min 0 W/m 22,5 km/h (4 Bft) 97,87 %
28.11.2018 07:28 3,4 C 3,3 C 2,2 C 89 % 1017,0 hPa 0,0 l/m 0 min 0 min 0 W/m 25,7 km/h (4 Bft) 97,83 %
28.11.2018 07:30 3,4 C 3,3 C 2,2 C 89 % 1017,0 hPa 0,0 l/m 0 min 0 min 0 W/m 29,0 km/h (5 Bft) 97,87 %
28.11.2018 07:32 3,4 C 3,3 C 2,2 C 89 % 1017,0 hPa 0,0 l/m 0 min 0 min 0 W/m 19,3 km/h (3 Bft) 95,74 %
28.11.2018 07:34 3,5 C 2,8 C 2,2 C 89 % 1017,0 hPa 0,0 l/m 0 min 0 min 0 W/m 29,0 km/h (5 Bft) 97,87 %
28.11.2018 07:36 3,4 C 2,8 C 2,2 C 89 % 1017,1 hPa 0,0 l/m 0 min 0 min 0 W/m 22,5 km/h (4 Bft) 97,87 %
28.11.2018 07:38 3,4 C 2,8 C 2,2 C 89 % 1017,1 hPa 0,0 l/m 0 min 0 min 0 W/m 22,5 km/h (4 Bft) 95,74 %
28.11.2018 07:40 3,4 C 2,8 C 2,2 C 89 % 1017,1 hPa 0,0 l/m 0 min 0 min 0 W/m 16,1 km/h (3 Bft) 97,83 %
28.11.2018 07:42 3,4 C 2,8 C 2,2 C 89 % 1017,1 hPa 0,0 l/m 0 min 0 min 0 W/m 16,1 km/h (3 Bft) 97,87 %
28.11.2018 07:44 3,4 C 2,8 C 2,2 C 89 % 1017,3 hPa 0,0 l/m 0 min 0 min 0 W/m 25,7 km/h (4 Bft) 100,00 %
28.11.2018 07:46 3,4 C 2,8 C 2,2 C 89 % 1017,3 hPa 0,0 l/m 0 min 0 min 0 W/m 16,1 km/h (3 Bft) 100,00 %
28.11.2018 07:48 3,4 C 2,8 C 2,2 C 89 % 1017,3 hPa 0,0 l/m 0 min 0 min 0 W/m 29,0 km/h (5 Bft) 97,87 %
28.11.2018 07:50 3,4 C 2,8 C 2,2 C 89 % 1017,3 hPa 0,0 l/m 0 min 0 min 0 W/m 29,0 km/h (5 Bft) 100,00 %
28.11.2018 07:52 3,4 C 3,3 C 2,2 C 89 % 1017,4 hPa 0,0 l/m 0 min 0 min 0 W/m 32,2 km/h (5 Bft) 97,83 %
28.11.2018 07:54 3,4 C 2,8 C 2,2 C 89 % 1017,4 hPa 0,0 l/m 0 min 0 min 0 W/m 16,1 km/h (3 Bft) 100,00 %
28.11.2018 07:56 3,4 C 3,3 C 2,2 C 89 % 1017,5 hPa 0,0 l/m 0 min 0 min 0 W/m 19,3 km/h (3 Bft) 97,87 %
28.11.2018 07:58 3,4 C 3,3 C 2,2 C 89 % 1017,4 hPa 0,0 l/m 0 min 0 min 0 W/m 19,3 km/h (3 Bft) 100,00 %
28.11.2018 08:00 3,4 C 3,3 C 2,2 C 89 % 1017,3 hPa 0,0 l/m 0 min 0 min 5 W/m 29,0 km/h (5 Bft) 100,00 %
28.11.2018 08:02 3,4 C 3,3 C 2,2 C 89 % 1017,4 hPa 0,0 l/m 0 min 0 min 6 W/m 25,7 km/h (4 Bft) 100,00 %
28.11.2018 08:04 3,5 C 3,3 C 2,2 C 89 % 1017,4 hPa 0,0 l/m 0 min 0 min 7 W/m 32,2 km/h (5 Bft) 100,00 %
28.11.2018 08:06 3,5 C 3,3 C 2,2 C 89 % 1017,4 hPa 0,0 l/m 0 min 0 min 7 W/m 35,4 km/h (5 Bft) 97,87 %
28.11.2018 08:08 3,5 C 3,3 C 2,2 C 89 % 1017,4 hPa 0,0 l/m 0 min 0 min 5 W/m 38,6 km/h (5 Bft) 97,87 %
28.11.2018 08:10 3,5 C 3,3 C 2,8 C 89 % 1017,5 hPa 0,0 l/m 0 min 0 min 3 W/m 41,8 km/h (6 Bft) 100,00 %
28.11.2018 08:12 3,6 C 3,3 C 2,2 C 89 % 1017,6 hPa 0,0 l/m 0 min 0 min 0 W/m 22,5 km/h (4 Bft) 95,74 %
28.11.2018 08:14 3,6 C 3,3 C 2,2 C 89 % 1017,6 hPa 0,0 l/m 0 min 0 min 0 W/m 16,1 km/h (3 Bft) 97,87 %
28.11.2018 08:16 3,6 C 3,3 C 2,8 C 89 % 1017,5 hPa 0,0 l/m 0 min 0 min 0 W/m 22,5 km/h (4 Bft) 97,83 %
28.11.2018 08:18 3,6 C 3,3 C 2,8 C 89 % 1017,4 hPa 0,0 l/m 0 min 0 min 3 W/m 32,2 km/h (5 Bft) 100,00 %
28.11.2018 08:20 3,6 C 3,3 C 2,8 C 89 % 1017,5 hPa 0,0 l/m 0 min 0 min 5 W/m 35,4 km/h (5 Bft) 97,87 %
28.11.2018 08:22 3,6 C 3,3 C 2,8 C 89 % 1017,5 hPa 0,0 l/m 0 min 0 min 6 W/m 25,7 km/h (4 Bft) 95,74 %
28.11.2018 08:24 3,7 C 3,3 C 2,8 C 89 % 1017,6 hPa 0,0 l/m 0 min 0 min 7 W/m 25,7 km/h (4 Bft) 95,74 %
28.11.2018 08:26 3,7 C 3,3 C 2,8 C 89 % 1017,6 hPa 0,0 l/m 0 min 0 min 8 W/m 25,7 km/h (4 Bft) 100,00 %
28.11.2018 08:28 3,7 C 3,3 C 2,8 C 89 % 1017,6 hPa 0,0 l/m 0 min 0 min 10 W/m 29,0 km/h (5 Bft) 97,83 %
28.11.2018 08:30 3,7 C 3,3 C 2,8 C 89 % 1017,7 hPa 0,0 l/m 0 min 0 min 11 W/m 35,4 km/h (5 Bft) 97,87 %
28.11.2018 08:32 3,7 C 3,3 C 2,8 C 89 % 1017,6 hPa 0,0 l/m 0 min 0 min 11 W/m 29,0 km/h (5 Bft) 97,87 %
28.11.2018 08:34 3,7 C 3,3 C 2,8 C 89 % 1017,6 hPa 0,0 l/m 0 min 0 min 12 W/m 19,3 km/h (3 Bft) 97,87 %
28.11.2018 08:36 3,8 C 3,3 C 2,8 C 89 % 1017,7 hPa 0,0 l/m 0 min 0 min 12 W/m 29,0 km/h (5 Bft) 97,87 %
28.11.2018 08:38 3,8 C 3,3 C 2,8 C 89 % 1017,7 hPa 0,0 l/m 0 min 0 min 13 W/m 25,7 km/h (4 Bft) 97,83 %
28.11.2018 08:40 3,8 C 3,3 C 2,8 C 89 % 1017,7 hPa 0,0 l/m 0 min 0 min 13 W/m 25,7 km/h (4 Bft) 97,22 %
28.11.2018 08:42 3,8 C 3,3 C 2,8 C 89 % 1017,8 hPa 0,0 l/m 0 min 0 min 12 W/m 32,2 km/h (5 Bft) 97,83 %
28.11.2018 08:44 3,8 C 3,3 C 2,8 C 89 % 1017,8 hPa 0,0 l/m 0 min 0 min 14 W/m 29,0 km/h (5 Bft) 97,87 %
28.11.2018 08:46 3,8 C 3,3 C 2,8 C 89 % 1017,8 hPa 0,0 l/m 0 min 0 min 14 W/m 35,4 km/h (5 Bft) 98,31 %
28.11.2018 08:48 3,8 C 3,3 C 2,8 C 89 % 1017,8 hPa 0,0 l/m 0 min 0 min 14 W/m 22,5 km/h (4 Bft) 97,14 %
28.11.2018 08:50 3,8 C 3,3 C 2,8 C 89 % 1017,8 hPa 0,0 l/m 0 min 0 min 14 W/m 25,7 km/h (4 Bft) 98,28 %
28.11.2018 08:52 3,9 C 3,3 C 2,8 C 88 % 1017,8 hPa 0,0 l/m 0 min 0 min 14 W/m 29,0 km/h (5 Bft) 97,87 %
28.11.2018 08:54 3,9 C 3,3 C 2,8 C 88 % 1017,9 hPa 0,0 l/m 0 min 0 min 14 W/m 29,0 km/h (5 Bft) 94,29 %
28.11.2018 08:56 3,9 C 3,3 C 2,8 C 88 % 1017,8 hPa 0,0 l/m 0 min 0 min 15 W/m 32,2 km/h (5 Bft) 95,74 %
28.11.2018 08:58 3,9 C 3,3 C 2,8 C 88 % 1017,8 hPa 0,0 l/m 0 min 0 min 16 W/m 25,7 km/h (4 Bft) 97,87 %
28.11.2018 09:00 3,9 C 3,3 C 2,8 C 88 % 1017,8 hPa 0,0 l/m 0 min 0 min 17 W/m 29,0 km/h (5 Bft) 95,74 %
28.11.2018 09:02 3,9 C 3,3 C 2,8 C 88 % 1017,8 hPa 0,0 l/m 0 min 0 min 18 W/m 29,0 km/h (5 Bft) 96,55 %
28.11.2018 09:04 3,9 C 3,9 C 2,8 C 88 % 1017,8 hPa 0,0 l/m 0 min 0 min 20 W/m 32,2 km/h (5 Bft) 97,87 %
28.11.2018 09:06 3,9 C 3,9 C 2,8 C 88 % 1017,7 hPa 0,0 l/m 0 min 0 min 22 W/m 35,4 km/h (5 Bft) 95,74 %
28.11.2018 09:08 3,9 C 3,9 C 2,8 C 88 % 1017,9 hPa 0,0 l/m 0 min 0 min 24 W/m 32,2 km/h (5 Bft) 95,74 %
28.11.2018 09:10 3,9 C 3,9 C 2,8 C 88 % 1017,8 hPa 0,0 l/m 0 min 0 min 25 W/m 32,2 km/h (5 Bft) 94,29 %
28.11.2018 09:12 3,9 C 3,9 C 2,8 C 88 % 1017,8 hPa 0,0 l/m 0 min 0 min 25 W/m 29,0 km/h (5 Bft) 98,28 %
28.11.2018 09:14 3,9 C 3,9 C 2,8 C 88 % 1017,9 hPa 0,0 l/m 0 min 0 min 26 W/m 22,5 km/h (4 Bft) 97,14 %
28.11.2018 09:16 4,0 C 3,9 C 3,3 C 88 % 1017,8 hPa 0,0 l/m 0 min 0 min 26 W/m 22,5 km/h (4 Bft) 95,65 %
28.11.2018 09:18 4,0 C 3,9 C 3,3 C 88 % 1017,9 hPa 0,0 l/m 0 min 0 min 28 W/m 25,7 km/h (4 Bft) 95,74 %
28.11.2018 09:20 4,0 C 3,9 C 3,3 C 88 % 1017,8 hPa 0,0 l/m 0 min 0 min 30 W/m 22,5 km/h (4 Bft) 95,74 %
28.11.2018 09:22 4,0 C 3,9 C 3,3 C 88 % 1017,8 hPa 0,0 l/m 0 min 0 min 30 W/m 29,0 km/h (5 Bft) 97,87 %
28.11.2018 09:24 4,1 C 3,9 C 3,3 C 88 % 1017,8 hPa 0,0 l/m 0 min 0 min 32 W/m 25,7 km/h (4 Bft) 97,87 %
28.11.2018 09:26 4,1 C 3,9 C 3,3 C 88 % 1017,8 hPa 0,0 l/m 0 min 0 min 33 W/m 16,1 km/h (3 Bft) 93,62 %
28.11.2018 09:28 4,1 C 3,9 C 3,3 C 88 % 1017,8 hPa 0,0 l/m 0 min 0 min 35 W/m 32,2 km/h (5 Bft) 100,00 %
28.11.2018 09:30 4,1 C 3,9 C 3,3 C 88 % 1017,8 hPa 0,0 l/m 0 min 0 min 35 W/m 25,7 km/h (4 Bft) 97,14 %
28.11.2018 09:32 4,1 C 3,9 C 3,3 C 88 % 1017,7 hPa 0,0 l/m 0 min 0 min 37 W/m 29,0 km/h (5 Bft) 97,87 %
28.11.2018 09:34 4,1 C 3,9 C 3,3 C 88 % 1017,7 hPa 0,0 l/m 0 min 0 min 39 W/m 29,0 km/h (5 Bft) 95,74 %
28.11.2018 09:36 4,1 C 3,9 C 3,3 C 88 % 1017,7 hPa 0,0 l/m 0 min 0 min 39 W/m 22,5 km/h (4 Bft) 94,92 %
28.11.2018 09:38 4,2 C 3,9 C 3,3 C 88 % 1017,7 hPa 0,0 l/m 0 min 0 min 39 W/m 29,0 km/h (5 Bft) 95,65 %
28.11.2018 09:40 4,2 C 3,9 C 3,3 C 88 % 1017,7 hPa 0,0 l/m 0 min 0 min 40 W/m 38,6 km/h (5 Bft) 94,29 %
28.11.2018 09:42 4,2 C 3,9 C 3,3 C 88 % 1017,7 hPa 0,0 l/m 0 min 0 min 41 W/m 32,2 km/h (5 Bft) 95,74 %
28.11.2018 09:44 4,2 C 3,9 C 3,3 C 88 % 1017,7 hPa 0,0 l/m 0 min 0 min 43 W/m 29,0 km/h (5 Bft) 93,62 %
28.11.2018 09:46 4,2 C 3,9 C 3,3 C 88 % 1017,7 hPa 0,0 l/m 0 min 0 min 43 W/m 32,2 km/h (5 Bft) 93,62 %
28.11.2018 09:48 4,2 C 3,9 C 3,3 C 88 % 1017,8 hPa 0,0 l/m 0 min 0 min 44 W/m 25,7 km/h (4 Bft) 95,74 %
28.11.2018 09:50 4,2 C 3,9 C 3,3 C 88 % 1017,7 hPa 0,0 l/m 0 min 0 min 46 W/m 25,7 km/h (4 Bft) 94,83 %
28.11.2018 09:52 4,3 C 3,9 C 3,3 C 88 % 1017,7 hPa 0,0 l/m 0 min 0 min 45 W/m 38,6 km/h (5 Bft) 97,14 %
28.11.2018 09:54 4,3 C 3,9 C 3,3 C 88 % 1017,8 hPa 0,0 l/m 0 min 0 min 44 W/m 25,7 km/h (4 Bft) 95,74 %
28.11.2018 09:56 4,3 C 3,9 C 3,3 C 88 % 1017,7 hPa 0,0 l/m 0 min 0 min 46 W/m 25,7 km/h (4 Bft) 97,87 %
28.11.2018 09:58 4,3 C 3,9 C 3,3 C 88 % 1017,7 hPa 0,0 l/m 0 min 0 min 49 W/m 29,0 km/h (5 Bft) 95,65 %
28.11.2018 10:00 4,3 C 3,9 C 3,3 C 88 % 1017,6 hPa 0,0 l/m 0 min 0 min 50 W/m 25,7 km/h (4 Bft) 94,83 %
28.11.2018 10:02 4,3 C 4,4 C 3,3 C 88 % 1017,6 hPa 0,0 l/m 0 min 0 min 53 W/m 25,7 km/h (4 Bft) 94,44 %
28.11.2018 10:04 4,3 C 4,4 C 3,3 C 88 % 1017,6 hPa 0,0 l/m 0 min 0 min 60 W/m 25,7 km/h (4 Bft) 95,65 %
28.11.2018 10:06 4,4 C 4,4 C 3,3 C 88 % 1017,6 hPa 0,0 l/m 0 min 0 min 64 W/m 25,7 km/h (4 Bft) 96,61 %
28.11.2018 10:08 4,4 C 4,4 C 3,3 C 87 % 1017,6 hPa 0,0 l/m 0 min 0 min 66 W/m 35,4 km/h (5 Bft) 97,14 %
28.11.2018 10:10 4,4 C 4,4 C 3,9 C 87 % 1017,6 hPa 0,0 l/m 0 min 0 min 67 W/m 29,0 km/h (5 Bft) 97,87 %
28.11.2018 10:12 4,4 C 4,4 C 3,9 C 87 % 1017,7 hPa 0,0 l/m 0 min 0 min 69 W/m 25,7 km/h (4 Bft) 97,87 %
28.11.2018 10:14 4,4 C 4,4 C 3,9 C 87 % 1017,7 hPa 0,0 l/m 0 min 0 min 69 W/m 32,2 km/h (5 Bft) 95,74 %
28.11.2018 10:16 4,4 C 4,4 C 3,9 C 87 % 1017,7 hPa 0,0 l/m 0 min 0 min 70 W/m 25,7 km/h (4 Bft) 97,83 %
28.11.2018 10:18 4,4 C 4,4 C 3,9 C 87 % 1017,6 hPa 0,0 l/m 0 min 0 min 68 W/m 25,7 km/h (4 Bft) 100,00 %
28.11.2018 10:20 4,5 C 4,4 C 3,9 C 87 % 1017,7 hPa 0,0 l/m 0 min 0 min 67 W/m 35,4 km/h (5 Bft) 97,87 %
28.11.2018 10:22 4,5 C 4,4 C 3,9 C 87 % 1017,8 hPa 0,0 l/m 0 min 0 min 66 W/m 25,7 km/h (4 Bft) 100,00 %
28.11.2018 10:24 4,5 C 4,4 C 3,9 C 87 % 1017,7 hPa 0,0 l/m 0 min 0 min 67 W/m 32,2 km/h (5 Bft) 100,00 %
28.11.2018 10:26 4,5 C 4,4 C 3,9 C 87 % 1017,7 hPa 0,0 l/m 0 min 0 min 65 W/m 29,0 km/h (5 Bft) 97,87 %
28.11.2018 10:28 4,5 C 4,4 C 3,9 C 87 % 1017,7 hPa 0,0 l/m 0 min 0 min 65 W/m 22,5 km/h (4 Bft) 100,00 %
28.11.2018 10:30 4,6 C 4,4 C 3,9 C 87 % 1017,6 hPa 0,0 l/m 0 min 0 min 65 W/m 25,7 km/h (4 Bft) 97,87 %
28.11.2018 10:32 4,6 C 4,4 C 3,9 C 87 % 1017,7 hPa 0,0 l/m 0 min 0 min 66 W/m 35,4 km/h (5 Bft) 97,87 %
28.11.2018 10:34 4,6 C 4,4 C 3,9 C 87 % 1017,7 hPa 0,0 l/m 0 min 0 min 67 W/m 32,2 km/h (5 Bft) 100,00 %
28.11.2018 10:36 4,6 C 4,4 C 3,9 C 87 % 1017,7 hPa 0,0 l/m 0 min 0 min 67 W/m 32,2 km/h (5 Bft) 98,28 %
28.11.2018 10:38 4,6 C 4,4 C 3,9 C 87 % 1017,7 hPa 0,0 l/m 0 min 0 min 65 W/m 38,6 km/h (5 Bft) 100,00 %
28.11.2018 10:40 4,6 C 4,4 C 3,9 C 87 % 1017,7 hPa 0,0 l/m 0 min 0 min 65 W/m 38,6 km/h (5 Bft) 100,00 %
28.11.2018 10:42 4,7 C 4,4 C 3,9 C 87 % 1017,7 hPa 0,0 l/m 0 min 0 min 66 W/m 38,6 km/h (5 Bft) 100,00 %
28.11.2018 10:44 4,7 C 4,4 C 3,9 C 87 % 1017,8 hPa 0,0 l/m 0 min 0 min 67 W/m 41,8 km/h (6 Bft) 100,00 %
28.11.2018 10:46 4,7 C 4,4 C 3,9 C 87 % 1017,7 hPa 0,0 l/m 0 min 0 min 67 W/m 22,5 km/h (4 Bft) 97,87 %
28.11.2018 10:48 4,7 C 4,4 C 3,9 C 87 % 1017,8 hPa 0,0 l/m 0 min 0 min 69 W/m 35,4 km/h (5 Bft) 97,87 %
28.11.2018 10:50 4,7 C 4,4 C 3,9 C 87 % 1017,8 hPa 0,0 l/m 0 min 0 min 70 W/m 35,4 km/h (5 Bft) 95,74 %
28.11.2018 10:52 4,7 C 4,4 C 3,9 C 87 % 1017,7 hPa 0,0 l/m 0 min 0 min 71 W/m 25,7 km/h (4 Bft) 95,65 %
28.11.2018 10:54 4,7 C 4,4 C 3,9 C 87 % 1017,8 hPa 0,0 l/m 0 min 0 min 72 W/m 29,0 km/h (5 Bft) 100,00 %
28.11.2018 10:56 4,8 C 4,4 C 3,9 C 87 % 1017,8 hPa 0,0 l/m 0 min 0 min 72 W/m 29,0 km/h (5 Bft) 100,00 %
28.11.2018 10:58 4,8 C 4,4 C 3,9 C 87 % 1017,8 hPa 0,0 l/m 0 min 0 min 71 W/m 29,0 km/h (5 Bft) 97,87 %
28.11.2018 11:00 4,8 C 5,0 C 3,9 C 87 % 1017,8 hPa 0,0 l/m 0 min 0 min 70 W/m 22,5 km/h (4 Bft) 100,00 %
28.11.2018 11:02 4,8 C 5,0 C 3,9 C 87 % 1017,7 hPa 0,0 l/m 0 min 0 min 69 W/m 32,2 km/h (5 Bft) 97,83 %
28.11.2018 11:04 4,8 C 5,0 C 3,9 C 87 % 1017,7 hPa 0,0 l/m 0 min 0 min 69 W/m 35,4 km/h (5 Bft) 100,00 %
28.11.2018 11:06 4,8 C 5,0 C 3,9 C 87 % 1017,7 hPa 0,0 l/m 0 min 0 min 69 W/m 29,0 km/h (5 Bft) 100,00 %
28.11.2018 11:08 4,9 C 5,0 C 3,9 C 87 % 1017,7 hPa 0,0 l/m 0 min 0 min 69 W/m 29,0 km/h (5 Bft) 100,00 %
28.11.2018 11:10 4,9 C 5,0 C 3,9 C 87 % 1017,6 hPa 0,0 l/m 0 min 0 min 70 W/m 35,4 km/h (5 Bft) 100,00 %
28.11.2018 11:12 4,9 C 5,0 C 3,9 C 87 % 1017,6 hPa 0,0 l/m 0 min 0 min 72 W/m 41,8 km/h (6 Bft) 100,00 %
28.11.2018 11:14 4,9 C 5,0 C 3,9 C 87 % 1017,6 hPa 0,0 l/m 0 min 0 min 73 W/m 29,0 km/h (5 Bft) 97,83 %
28.11.2018 11:16 4,9 C 5,0 C 4,4 C 86 % 1017,5 hPa 0,0 l/m 0 min 0 min 75 W/m 29,0 km/h (5 Bft) 97,87 %
28.11.2018 11:18 4,9 C 5,0 C 4,4 C 86 % 1017,5 hPa 0,0 l/m 0 min 0 min 77 W/m 22,5 km/h (4 Bft) 95,74 %
28.11.2018 11:20 4,9 C 5,0 C 4,4 C 86 % 1017,4 hPa 0,0 l/m 0 min 0 min 78 W/m 29,0 km/h (5 Bft) 97,87 %
28.11.2018 11:22 5,0 C 5,0 C 4,4 C 86 % 1017,5 hPa 0,0 l/m 0 min 0 min 79 W/m 29,0 km/h (5 Bft) 100,00 %
28.11.2018 11:24 5,0 C 5,0 C 4,4 C 86 % 1017,4 hPa 0,0 l/m 0 min 0 min 81 W/m 48,3 km/h (6 Bft) 97,87 %
28.11.2018 11:26 5,0 C 5,0 C 4,4 C 86 % 1017,4 hPa 0,0 l/m 0 min 0 min 81 W/m 22,5 km/h (4 Bft) 97,83 %
28.11.2018 11:28 5,0 C 5,0 C 4,4 C 86 % 1017,4 hPa 0,0 l/m 0 min 0 min 83 W/m 29,0 km/h (5 Bft) 97,87 %
28.11.2018 11:30 5,0 C 5,0 C 4,4 C 86 % 1017,5 hPa 0,0 l/m 0 min 0 min 86 W/m 41,8 km/h (6 Bft) 100,00 %
28.11.2018 11:32 5,1 C 5,0 C 4,4 C 86 % 1017,5 hPa 0,0 l/m 0 min 0 min 88 W/m 29,0 km/h (5 Bft) 100,00 %
28.11.2018 11:34 5,1 C 5,0 C 4,4 C 86 % 1017,5 hPa 0,0 l/m 0 min 0 min 90 W/m 32,2 km/h (5 Bft) 100,00 %
28.11.2018 11:36 5,1 C 5,0 C 4,4 C 86 % 1017,4 hPa 0,0 l/m 0 min 0 min 90 W/m 32,2 km/h (5 Bft) 98,28 %
28.11.2018 11:38 5,1 C 5,0 C 4,4 C 86 % 1017,4 hPa 0,0 l/m 0 min 0 min 91 W/m 45,1 km/h (6 Bft) 97,14 %
28.11.2018 11:40 5,1 C 5,0 C 4,4 C 86 % 1017,4 hPa 0,0 l/m 0 min 0 min 92 W/m 32,2 km/h (5 Bft) 97,87 %
28.11.2018 11:42 5,1 C 5,0 C 4,4 C 86 % 1017,4 hPa 0,0 l/m 0 min 0 min 96 W/m 25,7 km/h (4 Bft) 97,87 %
28.11.2018 11:44 5,2 C 5,0 C 4,4 C 86 % 1017,3 hPa 0,0 l/m 0 min 0 min 100 W/m 32,2 km/h (5 Bft) 97,87 %
28.11.2018 11:46 5,2 C 5,0 C 4,4 C 86 % 1017,3 hPa 0,0 l/m 0 min 0 min 104 W/m 29,0 km/h (5 Bft) 95,74 %
28.11.2018 11:48 5,2 C 5,0 C 4,4 C 86 % 1017,3 hPa 0,0 l/m 0 min 0 min 104 W/m 32,2 km/h (5 Bft) 97,83 %
28.11.2018 11:50 5,2 C 5,0 C 4,4 C 86 % 1017,3 hPa 0,0 l/m 0 min 0 min 107 W/m 29,0 km/h (5 Bft) 97,87 %
28.11.2018 11:52 5,2 C 5,0 C 4,4 C 86 % 1017,3 hPa 0,0 l/m 0 min 0 min 111 W/m 29,0 km/h (5 Bft) 97,87 %
28.11.2018 11:54 5,3 C 5,6 C 4,4 C 86 % 1017,3 hPa 0,0 l/m 0 min 0 min 115 W/m 22,5 km/h (4 Bft) 95,74 %
28.11.2018 11:56 5,3 C 5,6 C 4,4 C 86 % 1017,4 hPa 0,0 l/m 0 min 0 min 120 W/m 25,7 km/h (4 Bft) 97,87 %
28.11.2018 11:58 5,3 C 5,6 C 5,0 C 86 % 1017,2 hPa 0,0 l/m 0 min 0 min 125 W/m 29,0 km/h (5 Bft) 97,87 %
28.11.2018 12:00 5,3 C 5,6 C 5,0 C 86 % 1017,3 hPa 0,0 l/m 0 min 0 min 128 W/m 32,2 km/h (5 Bft) 97,83 %
28.11.2018 12:02 5,4 C 5,6 C 5,0 C 86 % 1017,2 hPa 0,0 l/m 0 min 0 min 129 W/m 38,6 km/h (5 Bft) 97,87 %
28.11.2018 12:04 5,4 C 5,6 C 5,0 C 86 % 1017,3 hPa 0,0 l/m 0 min 0 min 128 W/m 29,0 km/h (5 Bft) 95,74 %
28.11.2018 12:08 5,4 C 5,6 C 5,0 C 86 % 1017,2 hPa 0,0 l/m 0 min 0 min 122 W/m 29,0 km/h (5 Bft) 94,68 %
28.11.2018 12:10 5,5 C 5,6 C 5,0 C 86 % 1017,1 hPa 0,0 l/m 0 min 0 min 114 W/m 29,0 km/h (5 Bft) 95,74 %
28.11.2018 12:12 5,5 C 5,6 C 5,0 C 86 % 1017,2 hPa 0,0 l/m 0 min 0 min 112 W/m 35,4 km/h (5 Bft) 95,65 %
28.11.2018 12:14 5,5 C 5,6 C 5,0 C 86 % 1017,2 hPa 0,0 l/m 0 min 0 min 110 W/m 41,8 km/h (6 Bft) 93,62 %
28.11.2018 12:16 5,6 C 5,6 C 5,0 C 86 % 1017,1 hPa 0,0 l/m 0 min 0 min 112 W/m 25,7 km/h (4 Bft) 97,87 %
28.11.2018 12:18 5,6 C 5,6 C 5,0 C 86 % 1017,1 hPa 0,0 l/m 0 min 0 min 114 W/m 32,2 km/h (5 Bft) 91,49 %
28.11.2018 12:20 5,6 C 5,6 C 5,0 C 86 % 1017,0 hPa 0,0 l/m 0 min 0 min 118 W/m 35,4 km/h (5 Bft) 93,62 %
28.11.2018 12:22 5,6 C 5,6 C 5,0 C 85 % 1017,1 hPa 0,0 l/m 0 min 0 min 118 W/m 29,0 km/h (5 Bft) 91,49 %
28.11.2018 12:24 5,6 C 6,1 C 5,0 C 85 % 1017,1 hPa 0,0 l/m 0 min 0 min 121 W/m 22,5 km/h (4 Bft) 93,48 %
28.11.2018 12:26 5,6 C 6,1 C 5,0 C 85 % 1017,0 hPa 0,0 l/m 0 min 0 min 124 W/m 38,6 km/h (5 Bft) 89,36 %
28.11.2018 12:28 5,7 C 6,1 C 5,0 C 85 % 1017,0 hPa 0,0 l/m 0 min 0 min 130 W/m 41,8 km/h (6 Bft) 95,74 %
28.11.2018 12:30 5,7 C 6,1 C 5,0 C 86 % 1017,0 hPa 0,0 l/m 0 min 0 min 132 W/m 32,2 km/h (5 Bft) 97,87 %
28.11.2018 12:32 5,7 C 6,1 C 5,0 C 86 % 1017,0 hPa 0,0 l/m 0 min 0 min 136 W/m 25,7 km/h (4 Bft) 93,62 %
28.11.2018 12:34 5,8 C 6,1 C 5,0 C 85 % 1017,0 hPa 0,0 l/m 0 min 0 min 140 W/m 32,2 km/h (5 Bft) 95,74 %
28.11.2018 12:36 5,8 C 6,1 C 5,0 C 85 % 1016,9 hPa 0,0 l/m 0 min 0 min 146 W/m 25,7 km/h (4 Bft) 94,83 %
28.11.2018 12:38 5,8 C 6,1 C 5,6 C 85 % 1016,9 hPa 0,0 l/m 0 min 0 min 149 W/m 32,2 km/h (5 Bft) 94,29 %
28.11.2018 12:40 5,8 C 6,1 C 5,6 C 85 % 1016,8 hPa 0,0 l/m 2 min 0 min 155 W/m 32,2 km/h (5 Bft) 95,74 %
28.11.2018 12:42 5,9 C 6,1 C 5,6 C 85 % 1016,8 hPa 0,0 l/m 2 min 0 min 161 W/m 32,2 km/h (5 Bft) 95,74 %
28.11.2018 12:44 5,9 C 6,7 C 5,6 C 85 % 1016,8 hPa 0,0 l/m 2 min 0 min 169 W/m 29,0 km/h (5 Bft) 95,74 %
28.11.2018 12:46 5,9 C 6,7 C 5,6 C 85 % 1016,8 hPa 0,0 l/m 2 min 0 min 176 W/m 38,6 km/h (5 Bft) 97,87 %
28.11.2018 12:48 6,0 C 6,7 C 5,6 C 85 % 1016,9 hPa 0,0 l/m 2 min 0 min 176 W/m 25,7 km/h (4 Bft) 97,83 %
28.11.2018 12:50 6,1 C 6,7 C 5,6 C 85 % 1016,8 hPa 0,0 l/m 2 min 0 min 183 W/m 29,0 km/h (5 Bft) 97,87 %
28.11.2018 12:52 6,1 C 7,2 C 5,6 C 85 % 1016,7 hPa 0,0 l/m 2 min 0 min 185 W/m 22,5 km/h (4 Bft) 97,87 %
28.11.2018 12:54 6,2 C 7,2 C 5,6 C 85 % 1016,7 hPa 0,0 l/m 2 min 0 min 167 W/m 25,7 km/h (4 Bft) 93,62 %
28.11.2018 12:56 6,2 C 6,7 C 5,6 C 84 % 1016,8 hPa 0,0 l/m 2 min 0 min 159 W/m 29,0 km/h (5 Bft) 97,87 %
28.11.2018 12:58 6,2 C 6,7 C 5,6 C 84 % 1016,8 hPa 0,0 l/m 2 min 0 min 147 W/m 32,2 km/h (5 Bft) 97,83 %
28.11.2018 13:00 6,3 C 6,7 C 5,6 C 84 % 1016,8 hPa 0,0 l/m 0 min 0 min 136 W/m 32,2 km/h (5 Bft) 97,87 %
28.11.2018 13:02 6,3 C 6,7 C 5,6 C 84 % 1016,7 hPa 0,0 l/m 0 min 0 min 129 W/m 29,0 km/h (5 Bft) 97,87 %
28.11.2018 13:04 6,3 C 6,7 C 5,6 C 84 % 1016,8 hPa 0,0 l/m 0 min 0 min 127 W/m 25,7 km/h (4 Bft) 97,87 %
28.11.2018 13:06 6,3 C 6,7 C 5,6 C 84 % 1016,8 hPa 0,0 l/m 0 min 0 min 127 W/m 32,2 km/h (5 Bft) 97,87 %
28.11.2018 13:08 6,3 C 6,1 C 5,6 C 84 % 1016,7 hPa 0,0 l/m 0 min 0 min 128 W/m 41,8 km/h (6 Bft) 100,00 %
28.11.2018 13:10 6,4 C 6,7 C 5,6 C 83 % 1016,8 hPa 0,0 l/m 0 min 0 min 131 W/m 25,7 km/h (4 Bft) 97,83 %
28.11.2018 13:12 6,4 C 6,7 C 5,6 C 83 % 1016,7 hPa 0,0 l/m 0 min 0 min 140 W/m 45,1 km/h (6 Bft) 100,00 %
28.11.2018 13:14 6,4 C 6,7 C 5,6 C 83 % 1016,6 hPa 0,0 l/m 2 min 0 min 148 W/m 29,0 km/h (5 Bft) 97,87 %
28.11.2018 13:16 6,4 C 6,7 C 5,6 C 83 % 1016,6 hPa 0,0 l/m 2 min 0 min 151 W/m 32,2 km/h (5 Bft) 100,00 %
28.11.2018 13:18 6,4 C 6,7 C 5,6 C 83 % 1016,7 hPa 0,0 l/m 2 min 0 min 156 W/m 29,0 km/h (5 Bft) 100,00 %
28.11.2018 13:20 6,4 C 6,7 C 5,6 C 83 % 1016,7 hPa 0,0 l/m 2 min 0 min 164 W/m 32,2 km/h (5 Bft) 97,87 %
28.11.2018 13:22 6,4 C 6,7 C 5,6 C 83 % 1016,7 hPa 0,0 l/m 2 min 0 min 169 W/m 29,0 km/h (5 Bft) 100,00 %
28.11.2018 13:24 6,4 C 6,7 C 6,1 C 83 % 1016,7 hPa 0,0 l/m 2 min 0 min 179 W/m 35,4 km/h (5 Bft) 100,00 %
28.11.2018 13:26 6,4 C 6,7 C 6,1 C 83 % 1016,6 hPa 0,0 l/m 2 min 0 min 181 W/m 35,4 km/h (5 Bft) 97,87 %
28.11.2018 13:28 6,5 C 6,7 C 6,1 C 83 % 1016,7 hPa 0,0 l/m 2 min 0 min 171 W/m 35,4 km/h (5 Bft) 100,00 %
28.11.2018 13:30 6,5 C 6,7 C 5,6 C 83 % 1016,7 hPa 0,0 l/m 2 min 0 min 161 W/m 35,4 km/h (5 Bft) 97,87 %
28.11.2018 13:32 6,5 C 6,7 C 6,1 C 83 % 1016,7 hPa 0,0 l/m 2 min 0 min 149 W/m 35,4 km/h (5 Bft) 97,87 %
28.11.2018 13:34 6,5 C 6,7 C 6,1 C 83 % 1016,6 hPa 0,0 l/m 0 min 0 min 133 W/m 32,2 km/h (5 Bft) 97,83 %
28.11.2018 13:36 6,5 C 6,7 C 5,6 C 83 % 1016,7 hPa 0,0 l/m 0 min 0 min 118 W/m 41,8 km/h (6 Bft) 100,00 %
28.11.2018 13:38 6,5 C 6,7 C 5,6 C 83 % 1016,7 hPa 0,0 l/m 0 min 0 min 109 W/m 32,2 km/h (5 Bft) 100,00 %
28.11.2018 13:40 6,5 C 6,7 C 5,6 C 83 % 1016,6 hPa 0,0 l/m 0 min 0 min 108 W/m 22,5 km/h (4 Bft) 97,87 %
28.11.2018 13:42 6,5 C 6,7 C 5,6 C 83 % 1016,6 hPa 0,0 l/m 0 min 0 min 112 W/m 35,4 km/h (5 Bft) 100,00 %
28.11.2018 13:44 6,5 C 6,7 C 5,6 C 83 % 1016,6 hPa 0,0 l/m 0 min 0 min 113 W/m 38,6 km/h (5 Bft) 100,00 %
28.11.2018 13:46 6,5 C 6,7 C 5,6 C 83 % 1016,5 hPa 0,0 l/m 0 min 0 min 112 W/m 29,0 km/h (5 Bft) 100,00 %
28.11.2018 13:48 6,6 C 6,7 C 5,6 C 83 % 1016,5 hPa 0,0 l/m 0 min 0 min 110 W/m 22,5 km/h (4 Bft) 100,00 %
28.11.2018 13:50 6,6 C 6,7 C 5,6 C 83 % 1016,5 hPa 0,0 l/m 0 min 0 min 108 W/m 29,0 km/h (5 Bft) 100,00 %
28.11.2018 13:52 6,5 C 6,7 C 5,6 C 83 % 1016,5 hPa 0,0 l/m 0 min 2 min 103 W/m 29,0 km/h (5 Bft) 100,00 %
28.11.2018 13:54 6,6 C 6,1 C 5,6 C 83 % 1016,5 hPa 0,0 l/m 0 min 0 min 98 W/m 38,6 km/h (5 Bft) 100,00 %
28.11.2018 13:56 6,6 C 6,1 C 5,6 C 83 % 1016,5 hPa 0,0 l/m 0 min 0 min 94 W/m 29,0 km/h (5 Bft) 100,00 %
28.11.2018 13:58 6,5 C 6,1 C 5,6 C 83 % 1016,4 hPa 0,0 l/m 0 min 0 min 92 W/m 32,2 km/h (5 Bft) 100,00 %
28.11.2018 14:00 6,5 C 6,1 C 5,6 C 83 % 1016,3 hPa 0,0 l/m 0 min 0 min 90 W/m 25,7 km/h (4 Bft) 100,00 %
28.11.2018 14:02 6,5 C 6,1 C 5,6 C 83 % 1016,4 hPa 0,0 l/m 0 min 0 min 91 W/m 32,2 km/h (5 Bft) 97,87 %
28.11.2018 14:04 6,5 C 6,1 C 5,6 C 83 % 1016,3 hPa 0,0 l/m 0 min 0 min 97 W/m 32,2 km/h (5 Bft) 100,00 %
28.11.2018 14:06 6,5 C 6,1 C 5,6 C 83 % 1016,3 hPa 0,0 l/m 0 min 0 min 102 W/m 45,1 km/h (6 Bft) 98,28 %
28.11.2018 14:08 6,5 C 6,1 C 5,6 C 83 % 1016,3 hPa 0,0 l/m 0 min 0 min 105 W/m 29,0 km/h (5 Bft) 100,00 %
28.11.2018 14:10 6,5 C 6,7 C 5,6 C 83 % 1016,2 hPa 0,0 l/m 0 min 0 min 105 W/m 35,4 km/h (5 Bft) 95,74 %
28.11.2018 14:12 6,5 C 6,7 C 5,6 C 83 % 1016,2 hPa 0,0 l/m 0 min 0 min 104 W/m 41,8 km/h (6 Bft) 100,00 %
28.11.2018 14:14 6,5 C 6,7 C 5,6 C 83 % 1016,2 hPa 0,0 l/m 0 min 0 min 101 W/m 25,7 km/h (4 Bft) 97,87 %
28.11.2018 14:16 6,5 C 6,7 C 5,6 C 83 % 1016,2 hPa 0,0 l/m 0 min 0 min 94 W/m 25,7 km/h (4 Bft) 97,87 %
28.11.2018 14:18 6,5 C 6,1 C 5,6 C 83 % 1016,2 hPa 0,0 l/m 0 min 0 min 90 W/m 45,1 km/h (6 Bft) 97,87 %
28.11.2018 14:20 6,5 C 6,1 C 5,6 C 83 % 1016,0 hPa 0,0 l/m 0 min 0 min 86 W/m 35,4 km/h (5 Bft) 100,00 %
28.11.2018 14:22 6,5 C 6,1 C 5,6 C 83 % 1016,1 hPa 0,0 l/m 0 min 0 min 83 W/m 25,7 km/h (4 Bft) 97,87 %
28.11.2018 14:24 6,5 C 6,1 C 5,6 C 83 % 1016,1 hPa 0,0 l/m 0 min 0 min 83 W/m 38,6 km/h (5 Bft) 100,00 %
28.11.2018 14:26 6,5 C 6,1 C 5,6 C 83 % 1016,0 hPa 0,0 l/m 0 min 0 min 81 W/m 35,4 km/h (5 Bft) 97,87 %
28.11.2018 14:28 6,5 C 6,1 C 5,6 C 83 % 1016,0 hPa 0,0 l/m 0 min 0 min 81 W/m 45,1 km/h (6 Bft) 100,00 %
28.11.2018 14:30 6,5 C 6,1 C 5,6 C 83 % 1015,9 hPa 0,0 l/m 0 min 0 min 82 W/m 35,4 km/h (5 Bft) 100,00 %
28.11.2018 14:32 6,5 C 6,1 C 5,6 C 83 % 1015,9 hPa 0,0 l/m 0 min 0 min 84 W/m 38,6 km/h (5 Bft) 97,83 %
28.11.2018 14:34 6,6 C 6,1 C 5,6 C 83 % 1016,0 hPa 0,0 l/m 0 min 0 min 88 W/m 22,5 km/h (4 Bft) 97,87 %
28.11.2018 14:36 6,6 C 6,1 C 5,6 C 83 % 1016,0 hPa 0,0 l/m 0 min 0 min 93 W/m 41,8 km/h (6 Bft) 98,31 %
28.11.2018 14:38 6,6 C 6,1 C 5,6 C 83 % 1015,9 hPa 0,0 l/m 0 min 0 min 97 W/m 32,2 km/h (5 Bft) 100,00 %
28.11.2018 14:40 6,6 C 6,1 C 5,6 C 83 % 1016,0 hPa 0,0 l/m 0 min 0 min 97 W/m 32,2 km/h (5 Bft) 91,49 %
28.11.2018 14:42 6,6 C 6,7 C 5,6 C 83 % 1015,9 hPa 0,0 l/m 0 min 0 min 95 W/m 29,0 km/h (5 Bft) 97,87 %
28.11.2018 14:44 6,6 C 6,7 C 5,6 C 83 % 1015,9 hPa 0,0 l/m 0 min 0 min 89 W/m 32,2 km/h (5 Bft) 97,83 %
28.11.2018 14:46 6,6 C 6,1 C 5,6 C 83 % 1015,9 hPa 0,0 l/m 0 min 0 min 83 W/m 54,7 km/h (7 Bft) 95,74 %
28.11.2018 14:48 6,6 C 6,1 C 5,6 C 83 % 1015,9 hPa 0,0 l/m 0 min 0 min 76 W/m 29,0 km/h (5 Bft) 95,74 %
28.11.2018 14:50 6,6 C 6,1 C 5,6 C 83 % 1015,9 hPa 0,0 l/m 0 min 0 min 70 W/m 35,4 km/h (5 Bft) 95,74 %
28.11.2018 14:52 6,6 C 6,1 C 5,6 C 83 % 1015,9 hPa 0,0 l/m 0 min 0 min 69 W/m 41,8 km/h (6 Bft) 95,74 %
28.11.2018 14:54 6,6 C 6,1 C 5,6 C 83 % 1015,9 hPa 0,0 l/m 0 min 0 min 69 W/m 48,3 km/h (6 Bft) 95,74 %
28.11.2018 14:56 6,6 C 6,1 C 5,6 C 83 % 1015,9 hPa 0,0 l/m 0 min 0 min 69 W/m 32,2 km/h (5 Bft) 93,48 %
28.11.2018 14:58 6,6 C 6,1 C 5,6 C 83 % 1015,8 hPa 0,0 l/m 0 min 0 min 67 W/m 35,4 km/h (5 Bft) 93,62 %
28.11.2018 15:00 6,6 C 6,1 C 5,6 C 83 % 1015,8 hPa 0,0 l/m 0 min 0 min 67 W/m 32,2 km/h (5 Bft) 95,74 %
28.11.2018 15:02 6,6 C 6,1 C 5,6 C 83 % 1015,8 hPa 0,0 l/m 0 min 0 min 67 W/m 32,2 km/h (5 Bft) 95,74 %
28.11.2018 15:04 6,6 C 6,1 C 5,6 C 83 % 1015,8 hPa 0,0 l/m 0 min 0 min 64 W/m 35,4 km/h (5 Bft) 95,74 %
28.11.2018 15:06 6,6 C 6,1 C 5,6 C 83 % 1015,8 hPa 0,0 l/m 0 min 0 min 61 W/m 45,1 km/h (6 Bft) 94,83 %
28.11.2018 15:08 6,6 C 6,1 C 5,6 C 83 % 1015,8 hPa 0,0 l/m 0 min 0 min 55 W/m 32,2 km/h (5 Bft) 97,14 %
28.11.2018 15:10 6,6 C 6,1 C 5,6 C 83 % 1015,7 hPa 0,0 l/m 0 min 0 min 51 W/m 32,2 km/h (5 Bft) 95,74 %
28.11.2018 15:12 6,6 C 6,1 C 5,6 C 83 % 1015,7 hPa 0,0 l/m 0 min 0 min 49 W/m 32,2 km/h (5 Bft) 93,62 %
28.11.2018 15:14 6,6 C 6,1 C 5,6 C 83 % 1015,7 hPa 0,0 l/m 0 min 0 min 49 W/m 41,8 km/h (6 Bft) 93,62 %
28.11.2018 15:16 6,6 C 6,1 C 5,6 C 83 % 1015,8 hPa 0,0 l/m 0 min 0 min 48 W/m 29,0 km/h (5 Bft) 95,74 %
28.11.2018 15:18 6,6 C 6,1 C 5,6 C 83 % 1015,8 hPa 0,0 l/m 0 min 0 min 45 W/m 29,0 km/h (5 Bft) 97,87 %
28.11.2018 15:20 6,6 C 6,1 C 5,6 C 83 % 1015,7 hPa 0,0 l/m 0 min 0 min 41 W/m 25,7 km/h (4 Bft) 97,83 %
28.11.2018 15:22 6,6 C 6,1 C 5,6 C 83 % 1015,8 hPa 0,0 l/m 0 min 0 min 36 W/m 32,2 km/h (5 Bft) 95,74 %
28.11.2018 15:24 6,6 C 6,1 C 5,6 C 83 % 1015,8 hPa 0,0 l/m 0 min 0 min 31 W/m 41,8 km/h (6 Bft) 97,87 %
28.11.2018 15:26 6,6 C 6,1 C 5,6 C 83 % 1015,8 hPa 0,0 l/m 0 min 0 min 28 W/m 32,2 km/h (5 Bft) 93,62 %
28.11.2018 15:28 6,6 C 6,1 C 5,6 C 83 % 1015,8 hPa 0,0 l/m 0 min 0 min 27 W/m 35,4 km/h (5 Bft) 95,74 %
28.11.2018 15:30 6,6 C 6,1 C 5,6 C 83 % 1015,8 hPa 0,0 l/m 0 min 0 min 26 W/m 22,5 km/h (4 Bft) 93,48 %
28.11.2018 15:32 6,6 C 6,1 C 5,6 C 83 % 1015,8 hPa 0,0 l/m 0 min 0 min 24 W/m 32,2 km/h (5 Bft) 95,74 %
28.11.2018 15:34 6,6 C 6,1 C 5,6 C 83 % 1015,8 hPa 0,0 l/m 0 min 0 min 21 W/m 35,4 km/h (5 Bft) 93,62 %
28.11.2018 15:36 6,6 C 6,1 C 5,6 C 83 % 1015,8 hPa 0,0 l/m 0 min 0 min 20 W/m 35,4 km/h (5 Bft) 96,61 %
28.11.2018 15:38 6,6 C 6,1 C 5,6 C 83 % 1015,7 hPa 0,0 l/m 0 min 0 min 19 W/m 32,2 km/h (5 Bft) 97,14 %
28.11.2018 15:40 6,6 C 6,1 C 5,6 C 83 % 1015,8 hPa 0,0 l/m 0 min 0 min 19 W/m 35,4 km/h (5 Bft) 97,87 %
28.11.2018 15:42 6,6 C 6,1 C 5,6 C 83 % 1015,6 hPa 0,0 l/m 0 min 0 min 19 W/m 38,6 km/h (5 Bft) 97,83 %
28.11.2018 15:44 6,6 C 6,1 C 5,6 C 83 % 1015,6 hPa 0,0 l/m 0 min 0 min 21 W/m 29,0 km/h (5 Bft) 97,87 %
28.11.2018 15:46 6,6 C 6,1 C 5,6 C 83 % 1015,6 hPa 0,0 l/m 0 min 0 min 21 W/m 35,4 km/h (5 Bft) 97,87 %
28.11.2018 15:48 6,6 C 6,1 C 5,6 C 83 % 1015,7 hPa 0,0 l/m 0 min 0 min 19 W/m 32,2 km/h (5 Bft) 97,87 %
28.11.2018 15:50 6,6 C 6,1 C 5,6 C 83 % 1015,7 hPa 0,0 l/m 0 min 0 min 14 W/m 32,2 km/h (5 Bft) 95,74 %
28.11.2018 15:52 6,6 C 6,1 C 5,6 C 83 % 1015,7 hPa 0,0 l/m 0 min 0 min 11 W/m 25,7 km/h (4 Bft) 97,87 %
28.11.2018 15:54 6,6 C 6,1 C 5,6 C 83 % 1015,8 hPa 0,0 l/m 0 min 0 min 9 W/m 25,7 km/h (4 Bft) 97,83 %
28.11.2018 15:56 6,6 C 6,1 C 5,6 C 83 % 1015,7 hPa 0,0 l/m 0 min 0 min 8 W/m 29,0 km/h (5 Bft) 97,87 %
28.11.2018 15:58 6,6 C 6,1 C 5,6 C 84 % 1015,7 hPa 0,0 l/m 0 min 0 min 6 W/m 35,4 km/h (5 Bft) 97,87 %
28.11.2018 16:00 6,6 C 5,6 C 5,6 C 84 % 1015,7 hPa 0,0 l/m 0 min 2 min 5 W/m 32,2 km/h (5 Bft) 97,87 %
28.11.2018 16:02 6,6 C 5,6 C 5,0 C 84 % 1015,7 hPa 0,0 l/m 0 min 2 min 5 W/m 29,0 km/h (5 Bft) 95,74 %
28.11.2018 16:04 6,6 C 5,6 C 5,0 C 84 % 1015,8 hPa 0,0 l/m 0 min 2 min 3 W/m 38,6 km/h (5 Bft) 97,87 %
28.11.2018 16:06 6,5 C 5,6 C 5,0 C 84 % 1015,8 hPa 0,0 l/m 0 min 2 min 0 W/m 29,0 km/h (5 Bft) 97,83 %
28.11.2018 16:08 6,5 C 5,6 C 5,0 C 84 % 1015,7 hPa 0,0 l/m 0 min 2 min 0 W/m 22,5 km/h (4 Bft) 97,87 %
28.11.2018 16:10 6,5 C 5,0 C 4,4 C 85 % 1015,8 hPa 0,0 l/m 0 min 2 min 0 W/m 29,0 km/h (5 Bft) 97,87 %
28.11.2018 16:12 6,4 C 5,0 C 4,4 C 85 % 1015,7 hPa 0,0 l/m 0 min 2 min 0 W/m 35,4 km/h (5 Bft) 95,74 %
28.11.2018 16:14 6,4 C 5,0 C 4,4 C 85 % 1015,7 hPa 0,0 l/m 0 min 2 min 0 W/m 38,6 km/h (5 Bft) 95,74 %
28.11.2018 16:16 6,4 C 4,4 C 4,4 C 85 % 1015,7 hPa 0,0 l/m 0 min 2 min 0 W/m 32,2 km/h (5 Bft) 97,87 %
28.11.2018 16:18 6,4 C 4,4 C 3,9 C 86 % 1015,6 hPa 0,0 l/m 0 min 2 min 0 W/m 51,5 km/h (7 Bft) 97,83 %
28.11.2018 16:20 6,4 C 4,4 C 3,9 C 86 % 1015,7 hPa 0,0 l/m 0 min 2 min 0 W/m 25,7 km/h (4 Bft) 97,87 %
28.11.2018 16:22 6,3 C 4,4 C 3,9 C 87 % 1015,6 hPa 0,2 l/m 0 min 2 min 0 W/m 35,4 km/h (5 Bft) 97,87 %
28.11.2018 16:24 6,3 C 4,4 C 3,9 C 87 % 1015,6 hPa 0,0 l/m 0 min 2 min 0 W/m 19,3 km/h (3 Bft) 97,87 %
28.11.2018 16:26 6,2 C 4,4 C 3,9 C 87 % 1015,7 hPa 0,0 l/m 0 min 2 min 0 W/m 25,7 km/h (4 Bft) 100,00 %
28.11.2018 16:28 6,2 C 4,4 C 3,9 C 88 % 1015,6 hPa 0,0 l/m 0 min 2 min 0 W/m 32,2 km/h (5 Bft) 95,74 %
28.11.2018 16:30 6,2 C 4,4 C 3,9 C 88 % 1015,6 hPa 0,2 l/m 0 min 2 min 0 W/m 29,0 km/h (5 Bft) 97,83 %
28.11.2018 16:32 6,1 C 4,4 C 3,9 C 88 % 1015,6 hPa 0,0 l/m 0 min 2 min 0 W/m 32,2 km/h (5 Bft) 100,00 %
28.11.2018 16:34 6,1 C 4,4 C 3,9 C 88 % 1015,5 hPa 0,0 l/m 0 min 2 min 0 W/m 32,2 km/h (5 Bft) 97,87 %
28.11.2018 16:36 6,1 C 4,4 C 3,9 C 89 % 1015,5 hPa 0,0 l/m 0 min 2 min 0 W/m 29,0 km/h (5 Bft) 100,00 %
28.11.2018 16:38 6,0 C 4,4 C 3,9 C 89 % 1015,6 hPa 0,0 l/m 0 min 2 min 0 W/m 32,2 km/h (5 Bft) 100,00 %
28.11.2018 16:40 6,0 C 4,4 C 3,9 C 89 % 1015,6 hPa 0,0 l/m 0 min 2 min 0 W/m 29,0 km/h (5 Bft) 100,00 %
28.11.2018 16:42 6,0 C 4,4 C 3,9 C 89 % 1015,6 hPa 0,0 l/m 0 min 2 min 0 W/m 45,1 km/h (6 Bft) 100,00 %
28.11.2018 16:44 5,9 C 4,4 C 3,9 C 89 % 1015,6 hPa 0,0 l/m 0 min 2 min 0 W/m 32,2 km/h (5 Bft) 97,87 %
28.11.2018 16:46 5,9 C 4,4 C 3,9 C 90 % 1015,5 hPa 0,0 l/m 0 min 2 min 0 W/m 25,7 km/h (4 Bft) 100,00 %
28.11.2018 16:48 5,9 C 4,4 C 3,9 C 90 % 1015,6 hPa 0,0 l/m 0 min 0 min 0 W/m 29,0 km/h (5 Bft) 97,87 %
28.11.2018 16:50 5,9 C 4,4 C 3,9 C 90 % 1015,5 hPa 0,0 l/m 0 min 2 min 0 W/m 25,7 km/h (4 Bft) 97,87 %
28.11.2018 16:52 5,9 C 4,4 C 3,9 C 90 % 1015,6 hPa 0,0 l/m 0 min 2 min 0 W/m 25,7 km/h (4 Bft) 100,00 %
28.11.2018 16:54 5,9 C 4,4 C 3,9 C 90 % 1015,6 hPa 0,0 l/m 0 min 0 min 0 W/m 35,4 km/h (5 Bft) 100,00 %
28.11.2018 16:56 5,9 C 4,4 C 3,9 C 90 % 1015,6 hPa 0,0 l/m 0 min 2 min 0 W/m 32,2 km/h (5 Bft) 100,00 %
28.11.2018 16:58 5,9 C 4,4 C 3,9 C 90 % 1015,6 hPa 0,0 l/m 0 min 2 min 0 W/m 29,0 km/h (5 Bft) 100,00 %
28.11.2018 17:00 5,8 C 4,4 C 3,9 C 90 % 1015,6 hPa 0,0 l/m 0 min 2 min 0 W/m 32,2 km/h (5 Bft) 100,00 %
28.11.2018 17:02 5,9 C 4,4 C 3,9 C 91 % 1015,6 hPa 0,0 l/m 0 min 0 min 0 W/m 32,2 km/h (5 Bft) 100,00 %
28.11.2018 17:04 5,9 C 4,4 C 3,9 C 91 % 1015,6 hPa 0,0 l/m 0 min 0 min 0 W/m 32,2 km/h (5 Bft) 100,00 %
28.11.2018 17:06 5,8 C 4,4 C 3,9 C 91 % 1015,5 hPa 0,0 l/m 0 min 0 min 0 W/m 38,6 km/h (5 Bft) 96,55 %
28.11.2018 17:08 5,9 C 4,4 C 3,9 C 91 % 1015,6 hPa 0,0 l/m 0 min 0 min 0 W/m 32,2 km/h (5 Bft) 100,00 %
28.11.2018 17:10 5,8 C 4,4 C 3,9 C 91 % 1015,5 hPa 0,0 l/m 0 min 0 min 0 W/m 29,0 km/h (5 Bft) 95,74 %
28.11.2018 17:12 5,9 C 4,4 C 3,9 C 91 % 1015,5 hPa 0,0 l/m 0 min 0 min 0 W/m 32,2 km/h (5 Bft) 100,00 %
28.11.2018 17:14 5,9 C 4,4 C 3,9 C 91 % 1015,6 hPa 0,0 l/m 0 min 0 min 0 W/m 25,7 km/h (4 Bft) 97,87 %
28.11.2018 17:16 5,9 C 4,4 C 3,9 C 91 % 1015,5 hPa 0,0 l/m 0 min 0 min 0 W/m 25,7 km/h (4 Bft) 93,48 %
28.11.2018 17:18 5,9 C 4,4 C 3,9 C 91 % 1015,6 hPa 0,0 l/m 0 min 0 min 0 W/m 41,8 km/h (6 Bft) 95,74 %
28.11.2018 17:20 5,9 C 4,4 C 3,9 C 91 % 1015,7 hPa 0,0 l/m 0 min 0 min 0 W/m 29,0 km/h (5 Bft) 93,62 %
28.11.2018 17:22 5,9 C 4,4 C 3,9 C 91 % 1015,6 hPa 0,0 l/m 0 min 0 min 0 W/m 38,6 km/h (5 Bft) 95,74 %
28.11.2018 17:24 5,9 C 4,4 C 3,9 C 91 % 1015,7 hPa 0,0 l/m 0 min 0 min 0 W/m 29,0 km/h (5 Bft) 97,87 %
28.11.2018 17:26 5,9 C 4,4 C 4,4 C 91 % 1015,7 hPa 0,0 l/m 0 min 0 min 0 W/m 35,4 km/h (5 Bft) 95,74 %
28.11.2018 17:28 5,9 C 4,4 C 4,4 C 91 % 1015,8 hPa 0,0 l/m 0 min 0 min 0 W/m 32,2 km/h (5 Bft) 95,65 %
28.11.2018 17:30 5,9 C 4,4 C 3,9 C 91 % 1015,8 hPa 0,0 l/m 0 min 0 min 0 W/m 25,7 km/h (4 Bft) 95,74 %
28.11.2018 17:32 5,9 C 4,4 C 3,9 C 91 % 1015,7 hPa 0,0 l/m 0 min 0 min 0 W/m 35,4 km/h (5 Bft) 95,74 %
28.11.2018 17:34 5,9 C 4,4 C 3,9 C 92 % 1015,8 hPa 0,0 l/m 0 min 0 min 0 W/m 35,4 km/h (5 Bft) 93,62 %
28.11.2018 17:36 5,9 C 4,4 C 3,9 C 92 % 1015,7 hPa 0,0 l/m 0 min 0 min 0 W/m 32,2 km/h (5 Bft) 95,74 %
28.11.2018 17:38 5,8 C 4,4 C 3,9 C 92 % 1015,8 hPa 0,2 l/m 0 min 0 min 0 W/m 32,2 km/h (5 Bft) 95,74 %
28.11.2018 17:40 5,8 C 4,4 C 3,9 C 92 % 1015,8 hPa 0,0 l/m 0 min 0 min 0 W/m 29,0 km/h (5 Bft) 95,65 %
28.11.2018 17:42 5,8 C 4,4 C 3,9 C 92 % 1015,8 hPa 0,0 l/m 0 min 0 min 0 W/m 29,0 km/h (5 Bft) 97,87 %
28.11.2018 17:44 5,8 C 4,4 C 3,9 C 92 % 1015,7 hPa 0,0 l/m 0 min 0 min 0 W/m 32,2 km/h (5 Bft) 95,74 %
28.11.2018 17:46 5,8 C 4,4 C 3,9 C 92 % 1015,7 hPa 0,0 l/m 0 min 0 min 0 W/m 22,5 km/h (4 Bft) 91,49 %
28.11.2018 17:48 5,7 C 4,4 C 3,9 C 92 % 1015,8 hPa 0,0 l/m 0 min 0 min 0 W/m 32,2 km/h (5 Bft) 95,74 %
28.11.2018 17:50 5,7 C 4,4 C 3,9 C 92 % 1015,8 hPa 0,0 l/m 0 min 0 min 0 W/m 25,7 km/h (4 Bft) 95,65 %
28.11.2018 17:52 5,7 C 4,4 C 3,9 C 93 % 1015,8 hPa 0,0 l/m 0 min 0 min 0 W/m 25,7 km/h (4 Bft) 93,62 %
28.11.2018 17:54 5,7 C 4,4 C 3,9 C 93 % 1015,8 hPa 0,0 l/m 0 min 0 min 0 W/m 32,2 km/h (5 Bft) 95,74 %
28.11.2018 17:56 5,7 C 4,4 C 3,9 C 93 % 1015,9 hPa 0,0 l/m 0 min 0 min 0 W/m 25,7 km/h (4 Bft) 95,74 %
28.11.2018 17:58 5,6 C 4,4 C 3,9 C 93 % 1015,9 hPa 0,0 l/m 0 min 0 min 0 W/m 32,2 km/h (5 Bft) 93,62 %
28.11.2018 18:00 5,6 C 4,4 C 3,9 C 93 % 1015,9 hPa 0,0 l/m 0 min 2 min 0 W/m 35,4 km/h (5 Bft) 97,87 %
28.11.2018 18:02 5,6 C 4,4 C 3,9 C 93 % 1015,9 hPa 0,0 l/m 0 min 2 min 0 W/m 25,7 km/h (4 Bft) 97,83 %
28.11.2018 18:04 5,6 C 4,4 C 3,9 C 93 % 1015,9 hPa 0,0 l/m 0 min 2 min 0 W/m 29,0 km/h (5 Bft) 97,87 %
28.11.2018 18:08 5,5 C 4,4 C 3,9 C 94 % 1015,9 hPa 0,2 l/m 0 min 4 min 0 W/m 32,2 km/h (5 Bft) 95,74 %
28.11.2018 18:10 5,5 C 4,4 C 3,9 C 94 % 1016,0 hPa 0,0 l/m 0 min 2 min 0 W/m 29,0 km/h (5 Bft) 97,87 %
28.11.2018 18:12 5,5 C 4,4 C 3,9 C 94 % 1016,0 hPa 0,0 l/m 0 min 2 min 0 W/m 32,2 km/h (5 Bft) 97,87 %
28.11.2018 18:14 5,4 C 4,4 C 3,9 C 94 % 1015,9 hPa 0,0 l/m 0 min 2 min 0 W/m 38,6 km/h (5 Bft) 97,83 %
28.11.2018 18:16 5,4 C 4,4 C 3,9 C 94 % 1015,9 hPa 0,0 l/m 0 min 2 min 0 W/m 29,0 km/h (5 Bft) 97,87 %
28.11.2018 18:18 5,4 C 4,4 C 3,9 C 94 % 1015,9 hPa 0,2 l/m 0 min 2 min 0 W/m 35,4 km/h (5 Bft) 100,00 %
28.11.2018 18:20 5,4 C 4,4 C 3,9 C 94 % 1015,8 hPa 0,0 l/m 0 min 2 min 0 W/m 29,0 km/h (5 Bft) 100,00 %
28.11.2018 18:22 5,4 C 4,4 C 3,9 C 94 % 1015,7 hPa 0,0 l/m 0 min 2 min 0 W/m 29,0 km/h (5 Bft) 100,00 %
28.11.2018 18:24 5,4 C 4,4 C 3,9 C 94 % 1015,7 hPa 0,0 l/m 0 min 0 min 0 W/m 41,8 km/h (6 Bft) 100,00 %
28.11.2018 18:26 5,4 C 4,4 C 3,9 C 95 % 1015,7 hPa 0,0 l/m 0 min 0 min 0 W/m 35,4 km/h (5 Bft) 100,00 %
28.11.2018 18:28 5,3 C 4,4 C 3,9 C 95 % 1015,7 hPa 0,0 l/m 0 min 0 min 0 W/m 35,4 km/h (5 Bft) 100,00 %
28.11.2018 18:30 5,3 C 4,4 C 3,9 C 95 % 1015,8 hPa 0,0 l/m 0 min 0 min 0 W/m 32,2 km/h (5 Bft) 100,00 %
28.11.2018 18:32 5,3 C 4,4 C 3,9 C 95 % 1015,8 hPa 0,0 l/m 0 min 0 min 0 W/m 32,2 km/h (5 Bft) 100,00 %
28.11.2018 18:34 5,3 C 4,4 C 3,9 C 95 % 1015,8 hPa 0,0 l/m 0 min 0 min 0 W/m 32,2 km/h (5 Bft) 100,00 %
28.11.2018 18:36 5,3 C 4,4 C 3,9 C 95 % 1015,8 hPa 0,0 l/m 0 min 0 min 0 W/m 29,0 km/h (5 Bft) 100,00 %
28.11.2018 18:38 5,3 C 4,4 C 3,9 C 95 % 1015,8 hPa 0,0 l/m 0 min 0 min 0 W/m 32,2 km/h (5 Bft) 100,00 %
28.11.2018 18:40 5,3 C 4,4 C 3,9 C 95 % 1015,8 hPa 0,0 l/m 0 min 0 min 0 W/m 29,0 km/h (5 Bft) 100,00 %
28.11.2018 18:42 5,3 C 4,4 C 3,9 C 95 % 1015,7 hPa 0,0 l/m 0 min 0 min 0 W/m 35,4 km/h (5 Bft) 97,87 %
28.11.2018 18:44 5,3 C 4,4 C 3,9 C 95 % 1015,7 hPa 0,0 l/m 0 min 2 min 0 W/m 29,0 km/h (5 Bft) 97,87 %
28.11.2018 18:46 5,3 C 4,4 C 3,9 C 95 % 1015,7 hPa 0,0 l/m 0 min 0 min 0 W/m 45,1 km/h (6 Bft) 97,87 %
28.11.2018 18:48 5,3 C 4,4 C 3,9 C 95 % 1015,7 hPa 0,0 l/m 0 min 0 min 0 W/m 32,2 km/h (5 Bft) 100,00 %
28.11.2018 18:50 5,3 C 4,4 C 3,9 C 95 % 1015,7 hPa 0,0 l/m 0 min 0 min 0 W/m 32,2 km/h (5 Bft) 100,00 %
28.11.2018 18:52 5,3 C 4,4 C 3,9 C 95 % 1015,7 hPa 0,0 l/m 0 min 0 min 0 W/m 41,8 km/h (6 Bft) 100,00 %
28.11.2018 18:54 5,3 C 4,4 C 3,9 C 95 % 1015,7 hPa 0,0 l/m 0 min 0 min 0 W/m 32,2 km/h (5 Bft) 100,00 %
28.11.2018 18:56 5,3 C 4,4 C 3,9 C 95 % 1015,7 hPa 0,0 l/m 0 min 0 min 0 W/m 38,6 km/h (5 Bft) 100,00 %
28.11.2018 18:58 5,3 C 4,4 C 3,9 C 95 % 1015,7 hPa 0,0 l/m 0 min 2 min 0 W/m 32,2 km/h (5 Bft) 95,74 %
28.11.2018 19:00 5,3 C 4,4 C 3,9 C 96 % 1015,7 hPa 0,0 l/m 0 min 2 min 0 W/m 38,6 km/h (5 Bft) 97,83 %
28.11.2018 19:02 5,3 C 4,4 C 3,9 C 96 % 1015,8 hPa 0,0 l/m 0 min 2 min 0 W/m 16,1 km/h (3 Bft) 97,87 %
28.11.2018 19:04 5,3 C 4,4 C 3,9 C 96 % 1015,9 hPa 0,0 l/m 0 min 2 min 0 W/m 29,0 km/h (5 Bft) 95,74 %
28.11.2018 19:06 5,3 C 4,4 C 3,9 C 96 % 1015,8 hPa 0,0 l/m 0 min 0 min 0 W/m 32,2 km/h (5 Bft) 98,31 %
28.11.2018 19:08 5,3 C 4,4 C 3,9 C 96 % 1015,8 hPa 0,0 l/m 0 min 0 min 0 W/m 32,2 km/h (5 Bft) 97,14 %
28.11.2018 19:10 5,3 C 4,4 C 3,9 C 96 % 1015,8 hPa 0,0 l/m 0 min 0 min 0 W/m 38,6 km/h (5 Bft) 97,87 %
28.11.2018 19:12 5,3 C 4,4 C 3,9 C 96 % 1015,8 hPa 0,0 l/m 0 min 0 min 0 W/m 22,5 km/h (4 Bft) 95,65 %
28.11.2018 19:14 5,3 C 4,4 C 3,9 C 96 % 1015,7 hPa 0,0 l/m 0 min 0 min 0 W/m 22,5 km/h (4 Bft) 95,74 %
28.11.2018 19:16 5,3 C 4,4 C 3,9 C 96 % 1015,7 hPa 0,0 l/m 0 min 0 min 0 W/m 41,8 km/h (6 Bft) 95,74 %
28.11.2018 19:18 5,3 C 4,4 C 3,9 C 96 % 1015,7 hPa 0,0 l/m 0 min 0 min 0 W/m 19,3 km/h (3 Bft) 95,74 %
28.11.2018 19:20 5,3 C 4,4 C 3,9 C 96 % 1015,7 hPa 0,0 l/m 0 min 0 min 0 W/m 38,6 km/h (5 Bft) 97,87 %
28.11.2018 19:22 5,3 C 4,4 C 3,9 C 96 % 1015,8 hPa 0,0 l/m 0 min 0 min 0 W/m 32,2 km/h (5 Bft) 98,11 %
28.11.2018 19:24 5,4 C 4,4 C 3,9 C 96 % 1015,8 hPa 0,0 l/m 0 min 0 min 0 W/m 25,7 km/h (4 Bft) 95,74 %
28.11.2018 19:26 5,4 C 4,4 C 3,9 C 96 % 1015,8 hPa 0,0 l/m 0 min 0 min 0 W/m 22,5 km/h (4 Bft) 97,87 %
28.11.2018 19:28 5,4 C 4,4 C 3,9 C 96 % 1015,8 hPa 0,0 l/m 0 min 0 min 0 W/m 19,3 km/h (3 Bft) 97,83 %
28.11.2018 19:30 5,4 C 4,4 C 3,9 C 96 % 1015,8 hPa 0,0 l/m 0 min 0 min 0 W/m 38,6 km/h (5 Bft) 97,87 %
28.11.2018 19:32 5,4 C 4,4 C 3,9 C 96 % 1015,8 hPa 0,0 l/m 0 min 0 min 0 W/m 35,4 km/h (5 Bft) 97,87 %
28.11.2018 19:34 5,4 C 4,4 C 3,9 C 96 % 1015,7 hPa 0,0 l/m 0 min 0 min 0 W/m 35,4 km/h (5 Bft) 97,87 %
28.11.2018 19:36 5,4 C 4,4 C 3,9 C 96 % 1015,8 hPa 0,0 l/m 0 min 0 min 0 W/m 29,0 km/h (5 Bft) 97,87 %
28.11.2018 19:38 5,4 C 4,4 C 3,9 C 96 % 1015,8 hPa 0,0 l/m 0 min 0 min 0 W/m 38,6 km/h (5 Bft) 97,87 %
28.11.2018 19:40 5,4 C 4,4 C 3,9 C 96 % 1015,7 hPa 0,0 l/m 0 min 0 min 0 W/m 22,5 km/h (4 Bft) 97,87 %
28.11.2018 19:42 5,4 C 4,4 C 3,9 C 96 % 1015,7 hPa 0,0 l/m 0 min 0 min 0 W/m 29,0 km/h (5 Bft) 97,87 %
28.11.2018 19:44 5,4 C 4,4 C 3,9 C 96 % 1015,7 hPa 0,0 l/m 0 min 0 min 0 W/m 25,7 km/h (4 Bft) 95,74 %
28.11.2018 19:46 5,4 C 4,4 C 3,9 C 96 % 1015,7 hPa 0,0 l/m 0 min 0 min 0 W/m 54,7 km/h (7 Bft) 97,87 %
28.11.2018 19:48 5,4 C 4,4 C 3,9 C 96 % 1015,6 hPa 0,0 l/m 0 min 0 min 0 W/m 35,4 km/h (5 Bft) 97,87 %
28.11.2018 19:50 5,4 C 4,4 C 3,9 C 96 % 1015,6 hPa 0,0 l/m 0 min 0 min 0 W/m 29,0 km/h (5 Bft) 95,65 %
28.11.2018 19:52 5,4 C 4,4 C 3,9 C 96 % 1015,6 hPa 0,0 l/m 0 min 0 min 0 W/m 29,0 km/h (5 Bft) 95,74 %
28.11.2018 19:54 5,4 C 5,0 C 3,9 C 96 % 1015,7 hPa 0,0 l/m 0 min 0 min 0 W/m 35,4 km/h (5 Bft) 97,87 %
28.11.2018 19:56 5,4 C 5,0 C 3,9 C 96 % 1015,7 hPa 0,0 l/m 0 min 0 min 0 W/m 35,4 km/h (5 Bft) 97,87 %
28.11.2018 19:58 5,4 C 5,0 C 3,9 C 96 % 1015,6 hPa 0,0 l/m 0 min 0 min 0 W/m 25,7 km/h (4 Bft) 93,62 %
28.11.2018 20:00 5,4 C 5,0 C 3,9 C 96 % 1015,7 hPa 0,0 l/m 0 min 0 min 0 W/m 25,7 km/h (4 Bft) 95,74 %
28.11.2018 20:02 5,4 C 5,0 C 4,4 C 96 % 1015,7 hPa 0,0 l/m 0 min 0 min 0 W/m 25,7 km/h (4 Bft) 97,83 %
28.11.2018 20:04 5,4 C 5,0 C 4,4 C 96 % 1015,7 hPa 0,0 l/m 0 min 0 min 0 W/m 25,7 km/h (4 Bft) 95,74 %
28.11.2018 20:06 5,4 C 5,0 C 4,4 C 96 % 1015,6 hPa 0,0 l/m 0 min 0 min 0 W/m 25,7 km/h (4 Bft) 95,74 %
28.11.2018 20:08 5,4 C 5,0 C 4,4 C 96 % 1015,5 hPa 0,0 l/m 0 min 0 min 0 W/m 25,7 km/h (4 Bft) 95,74 %
28.11.2018 20:10 5,5 C 5,0 C 4,4 C 96 % 1015,5 hPa 0,0 l/m 0 min 0 min 0 W/m 29,0 km/h (5 Bft) 89,36 %
28.11.2018 20:12 5,5 C 5,0 C 4,4 C 96 % 1015,3 hPa 0,0 l/m 0 min 0 min 0 W/m 22,5 km/h (4 Bft) 93,62 %
28.11.2018 20:14 5,5 C 5,0 C 4,4 C 96 % 1015,2 hPa 0,0 l/m 0 min 0 min 0 W/m 35,4 km/h (5 Bft) 95,65 %
28.11.2018 20:16 5,5 C 5,0 C 4,4 C 96 % 1015,4 hPa 0,0 l/m 0 min 0 min 0 W/m 35,4 km/h (5 Bft) 97,87 %
28.11.2018 20:18 5,5 C 5,0 C 4,4 C 96 % 1015,3 hPa 0,0 l/m 0 min 0 min 0 W/m 41,8 km/h (6 Bft) 97,87 %
28.11.2018 20:20 5,5 C 5,0 C 4,4 C 96 % 1015,4 hPa 0,0 l/m 0 min 0 min 0 W/m 22,5 km/h (4 Bft) 95,74 %
28.11.2018 20:22 5,5 C 5,0 C 4,4 C 96 % 1015,4 hPa 0,0 l/m 0 min 0 min 0 W/m 22,5 km/h (4 Bft) 95,74 %
28.11.2018 20:24 5,5 C 5,0 C 4,4 C 96 % 1015,5 hPa 0,0 l/m 0 min 0 min 0 W/m 25,7 km/h (4 Bft) 93,62 %
28.11.2018 20:26 5,5 C 5,0 C 4,4 C 96 % 1015,5 hPa 0,0 l/m 0 min 0 min 0 W/m 32,2 km/h (5 Bft) 95,65 %
28.11.2018 20:28 5,5 C 5,0 C 4,4 C 96 % 1015,5 hPa 0,0 l/m 0 min 0 min 0 W/m 35,4 km/h (5 Bft) 95,74 %
28.11.2018 20:30 5,5 C 5,0 C 4,4 C 96 % 1015,5 hPa 0,0 l/m 0 min 0 min 0 W/m 29,0 km/h (5 Bft) 95,74 %
28.11.2018 20:32 5,5 C 5,0 C 4,4 C 96 % 1015,4 hPa 0,0 l/m 0 min 0 min 0 W/m 32,2 km/h (5 Bft) 95,74 %
28.11.2018 20:34 5,6 C 5,0 C 4,4 C 96 % 1015,5 hPa 0,0 l/m 0 min 0 min 0 W/m 38,6 km/h (5 Bft) 95,74 %
28.11.2018 20:36 5,6 C 5,0 C 4,4 C 96 % 1015,5 hPa 0,0 l/m 0 min 0 min 0 W/m 35,4 km/h (5 Bft) 97,83 %
28.11.2018 20:38 5,6 C 5,0 C 4,4 C 96 % 1015,5 hPa 0,0 l/m 0 min 0 min 0 W/m 32,2 km/h (5 Bft) 95,74 %
28.11.2018 20:40 5,6 C 5,0 C 4,4 C 96 % 1015,5 hPa 0,0 l/m 0 min 0 min 0 W/m 38,6 km/h (5 Bft) 93,62 %
28.11.2018 20:42 5,6 C 5,0 C 4,4 C 96 % 1015,5 hPa 0,0 l/m 0 min 0 min 0 W/m 32,2 km/h (5 Bft) 97,87 %
28.11.2018 20:44 5,6 C 5,0 C 4,4 C 96 % 1015,5 hPa 0,0 l/m 0 min 0 min 0 W/m 38,6 km/h (5 Bft) 97,87 %
28.11.2018 20:46 5,6 C 5,0 C 4,4 C 96 % 1015,4 hPa 0,0 l/m 0 min 0 min 0 W/m 25,7 km/h (4 Bft) 97,87 %
28.11.2018 20:48 5,6 C 5,0 C 4,4 C 96 % 1015,5 hPa 0,0 l/m 0 min 0 min 0 W/m 29,0 km/h (5 Bft) 95,65 %
28.11.2018 20:50 5,6 C 5,0 C 4,4 C 96 % 1015,4 hPa 0,0 l/m 0 min 0 min 0 W/m 29,0 km/h (5 Bft) 97,87 %
28.11.2018 20:52 5,6 C 5,0 C 4,4 C 96 % 1015,5 hPa 0,0 l/m 0 min 0 min 0 W/m 22,5 km/h (4 Bft) 97,87 %
28.11.2018 20:54 5,6 C 5,0 C 4,4 C 96 % 1015,5 hPa 0,0 l/m 0 min 0 min 0 W/m 22,5 km/h (4 Bft) 95,74 %
28.11.2018 20:56 5,6 C 5,0 C 4,4 C 96 % 1015,5 hPa 0,0 l/m 0 min 0 min 0 W/m 22,5 km/h (4 Bft) 97,87 %
28.11.2018 20:58 5,6 C 5,0 C 4,4 C 96 % 1015,4 hPa 0,0 l/m 0 min 0 min 0 W/m 19,3 km/h (3 Bft) 97,87 %
28.11.2018 21:00 5,6 C 5,0 C 4,4 C 96 % 1015,4 hPa 0,0 l/m 0 min 0 min 0 W/m 29,0 km/h (5 Bft) 97,83 %
28.11.2018 21:02 5,6 C 5,0 C 4,4 C 96 % 1015,4 hPa 0,0 l/m 0 min 0 min 0 W/m 32,2 km/h (5 Bft) 93,62 %
28.11.2018 21:04 5,6 C 5,0 C 4,4 C 96 % 1015,4 hPa 0,0 l/m 0 min 0 min 0 W/m 25,7 km/h (4 Bft) 95,74 %
28.11.2018 21:06 5,7 C 5,0 C 4,4 C 96 % 1015,4 hPa 0,0 l/m 0 min 0 min 0 W/m 29,0 km/h (5 Bft) 97,87 %
28.11.2018 21:08 5,7 C 5,0 C 4,4 C 96 % 1015,3 hPa 0,0 l/m 0 min 0 min 0 W/m 38,6 km/h (5 Bft) 97,87 %
28.11.2018 21:10 5,7 C 5,0 C 4,4 C 96 % 1015,3 hPa 0,0 l/m 0 min 0 min 0 W/m 32,2 km/h (5 Bft) 100,00 %
28.11.2018 21:12 5,7 C 5,0 C 4,4 C 96 % 1015,3 hPa 0,0 l/m 0 min 0 min 0 W/m 25,7 km/h (4 Bft) 100,00 %
28.11.2018 21:14 5,7 C 5,0 C 4,4 C 96 % 1015,4 hPa 0,0 l/m 0 min 0 min 0 W/m 25,7 km/h (4 Bft) 100,00 %
28.11.2018 21:16 5,7 C 5,0 C 4,4 C 96 % 1015,3 hPa 0,0 l/m 0 min 0 min 0 W/m 25,7 km/h (4 Bft) 100,00 %
28.11.2018 21:18 5,7 C 5,0 C 4,4 C 96 % 1015,2 hPa 0,0 l/m 0 min 0 min 0 W/m 22,5 km/h (4 Bft) 100,00 %
28.11.2018 21:20 5,7 C 5,0 C 4,4 C 96 % 1015,1 hPa 0,0 l/m 0 min 0 min 0 W/m 22,5 km/h (4 Bft) 100,00 %
28.11.2018 21:22 5,7 C 5,0 C 4,4 C 96 % 1015,1 hPa 0,0 l/m 0 min 0 min 0 W/m 35,4 km/h (5 Bft) 100,00 %
28.11.2018 21:24 5,7 C 5,0 C 4,4 C 96 % 1015,1 hPa 0,0 l/m 0 min 0 min 0 W/m 25,7 km/h (4 Bft) 100,00 %
28.11.2018 21:26 5,7 C 5,0 C 4,4 C 96 % 1015,1 hPa 0,0 l/m 0 min 0 min 0 W/m 32,2 km/h (5 Bft) 97,87 %
28.11.2018 21:28 5,7 C 5,0 C 4,4 C 96 % 1015,1 hPa 0,0 l/m 0 min 0 min 0 W/m 32,2 km/h (5 Bft) 97,87 %
28.11.2018 21:30 5,8 C 5,0 C 4,4 C 96 % 1015,0 hPa 0,0 l/m 0 min 0 min 0 W/m 29,0 km/h (5 Bft) 100,00 %
28.11.2018 21:32 5,8 C 5,0 C 4,4 C 96 % 1015,1 hPa 0,0 l/m 0 min 0 min 0 W/m 38,6 km/h (5 Bft) 100,00 %
28.11.2018 21:34 5,8 C 5,0 C 4,4 C 96 % 1015,1 hPa 0,0 l/m 0 min 0 min 0 W/m 25,7 km/h (4 Bft) 100,00 %
28.11.2018 21:36 5,8 C 5,0 C 4,4 C 96 % 1015,1 hPa 0,0 l/m 0 min 0 min 0 W/m 22,5 km/h (4 Bft) 97,83 %
28.11.2018 21:38 5,8 C 5,0 C 4,4 C 95 % 1015,1 hPa 0,0 l/m 0 min 0 min 0 W/m 32,2 km/h (5 Bft) 100,00 %
28.11.2018 21:40 5,8 C 5,0 C 4,4 C 95 % 1015,2 hPa 0,0 l/m 0 min 0 min 0 W/m 32,2 km/h (5 Bft) 100,00 %
28.11.2018 21:42 5,8 C 5,0 C 4,4 C 95 % 1015,2 hPa 0,0 l/m 0 min 0 min 0 W/m 22,5 km/h (4 Bft) 100,00 %
28.11.2018 21:44 5,8 C 5,0 C 4,4 C 95 % 1015,3 hPa 0,0 l/m 0 min 0 min 0 W/m 25,7 km/h (4 Bft) 100,00 %
28.11.2018 21:46 5,8 C 5,0 C 4,4 C 95 % 1015,2 hPa 0,0 l/m 0 min 0 min 0 W/m 45,1 km/h (6 Bft) 97,83 %
28.11.2018 21:48 5,9 C 5,0 C 4,4 C 95 % 1015,2 hPa 0,0 l/m 0 min 0 min 0 W/m 25,7 km/h (4 Bft) 97,87 %
28.11.2018 21:50 5,9 C 5,0 C 4,4 C 95 % 1015,2 hPa 0,0 l/m 0 min 0 min 0 W/m 32,2 km/h (5 Bft) 97,87 %
28.11.2018 21:52 5,9 C 5,0 C 4,4 C 95 % 1015,2 hPa 0,0 l/m 0 min 0 min 0 W/m 22,5 km/h (4 Bft) 87,23 %
28.11.2018 21:54 5,9 C 5,0 C 4,4 C 95 % 1015,3 hPa 0,0 l/m 0 min 0 min 0 W/m 22,5 km/h (4 Bft) 100,00 %
28.11.2018 21:56 5,9 C 5,0 C 4,4 C 95 % 1015,3 hPa 0,0 l/m 0 min 0 min 0 W/m 22,5 km/h (4 Bft) 95,74 %
28.11.2018 21:58 5,9 C 5,0 C 4,4 C 95 % 1015,3 hPa 0,0 l/m 0 min 0 min 0 W/m 22,5 km/h (4 Bft) 100,00 %
28.11.2018 22:00 5,9 C 5,0 C 4,4 C 95 % 1015,3 hPa 0,0 l/m 0 min 0 min 0 W/m 32,2 km/h (5 Bft) 100,00 %
28.11.2018 22:02 5,9 C 5,0 C 4,4 C 95 % 1015,3 hPa 0,0 l/m 0 min 0 min 0 W/m 22,5 km/h (4 Bft) 97,87 %
28.11.2018 22:04 5,9 C 5,0 C 4,4 C 95 % 1015,3 hPa 0,0 l/m 0 min 0 min 0 W/m 16,1 km/h (3 Bft) 100,00 %
28.11.2018 22:06 5,9 C 5,0 C 5,0 C 95 % 1015,2 hPa 0,0 l/m 0 min 0 min 0 W/m 32,2 km/h (5 Bft) 97,87 %
28.11.2018 22:08 5,9 C 5,0 C 5,0 C 95 % 1015,3 hPa 0,0 l/m 0 min 0 min 0 W/m 25,7 km/h (4 Bft) 97,87 %
28.11.2018 22:10 5,9 C 5,0 C 5,0 C 95 % 1015,3 hPa 0,0 l/m 0 min 0 min 0 W/m 32,2 km/h (5 Bft) 100,00 %
28.11.2018 22:12 6,0 C 5,0 C 5,0 C 95 % 1015,3 hPa 0,0 l/m 0 min 0 min 0 W/m 25,7 km/h (4 Bft) 97,87 %
28.11.2018 22:14 6,0 C 5,0 C 5,0 C 95 % 1015,3 hPa 0,0 l/m 0 min 0 min 0 W/m 29,0 km/h (5 Bft) 100,00 %
28.11.2018 22:16 6,0 C 5,6 C 5,0 C 95 % 1015,3 hPa 0,0 l/m 0 min 0 min 0 W/m 35,4 km/h (5 Bft) 100,00 %
28.11.2018 22:18 6,0 C 5,6 C 5,0 C 95 % 1015,2 hPa 0,0 l/m 0 min 0 min 0 W/m 25,7 km/h (4 Bft) 95,74 %
28.11.2018 22:20 6,0 C 5,6 C 5,0 C 95 % 1015,3 hPa 0,0 l/m 0 min 0 min 0 W/m 22,5 km/h (4 Bft) 97,87 %
28.11.2018 22:22 6,0 C 5,6 C 5,0 C 95 % 1015,2 hPa 0,0 l/m 0 min 0 min 0 W/m 25,7 km/h (4 Bft) 97,83 %
28.11.2018 22:24 6,0 C 5,6 C 5,0 C 95 % 1015,3 hPa 0,0 l/m 0 min 0 min 0 W/m 16,1 km/h (3 Bft) 93,62 %
28.11.2018 22:26 6,0 C 5,6 C 5,0 C 95 % 1015,3 hPa 0,0 l/m 0 min 0 min 0 W/m 25,7 km/h (4 Bft) 89,36 %
28.11.2018 22:28 6,0 C 5,6 C 5,0 C 95 % 1015,2 hPa 0,0 l/m 0 min 0 min 0 W/m 35,4 km/h (5 Bft) 93,62 %
28.11.2018 22:30 6,0 C 5,6 C 5,0 C 95 % 1015,1 hPa 0,0 l/m 0 min 0 min 0 W/m 32,2 km/h (5 Bft) 85,11 %
28.11.2018 22:32 6,1 C 5,6 C 5,0 C 95 % 1015,1 hPa 0,0 l/m 0 min 0 min 0 W/m 29,0 km/h (5 Bft) 95,74 %
28.11.2018 22:34 6,1 C 5,6 C 5,0 C 95 % 1015,1 hPa 0,0 l/m 0 min 0 min 0 W/m 35,4 km/h (5 Bft) 91,30 %
28.11.2018 22:36 6,1 C 5,6 C 5,0 C 95 % 1015,2 hPa 0,0 l/m 0 min 0 min 0 W/m 25,7 km/h (4 Bft) 93,62 %
28.11.2018 22:38 6,1 C 5,6 C 5,0 C 95 % 1015,2 hPa 0,0 l/m 0 min 0 min 0 W/m 19,3 km/h (3 Bft) 93,62 %
28.11.2018 22:40 6,1 C 5,6 C 5,0 C 94 % 1015,2 hPa 0,0 l/m 0 min 0 min 0 W/m 19,3 km/h (3 Bft) 93,62 %
28.11.2018 22:42 6,1 C 5,6 C 5,0 C 94 % 1015,2 hPa 0,0 l/m 0 min 0 min 0 W/m 22,5 km/h (4 Bft) 93,62 %
28.11.2018 22:44 6,1 C 5,6 C 5,0 C 94 % 1015,2 hPa 0,0 l/m 0 min 0 min 0 W/m 25,7 km/h (4 Bft) 95,74 %
28.11.2018 22:46 6,1 C 5,6 C 5,0 C 94 % 1015,0 hPa 0,0 l/m 0 min 0 min 0 W/m 25,7 km/h (4 Bft) 95,65 %
28.11.2018 22:48 6,1 C 5,6 C 5,0 C 94 % 1015,1 hPa 0,0 l/m 0 min 0 min 0 W/m 22,5 km/h (4 Bft) 95,74 %
28.11.2018 22:50 6,1 C 5,6 C 5,0 C 94 % 1015,2 hPa 0,0 l/m 0 min 0 min 0 W/m 22,5 km/h (4 Bft) 95,74 %
28.11.2018 22:52 6,1 C 5,6 C 5,0 C 94 % 1015,1 hPa 0,0 l/m 0 min 0 min 0 W/m 22,5 km/h (4 Bft) 95,74 %
28.11.2018 22:54 6,1 C 5,6 C 5,0 C 94 % 1015,1 hPa 0,0 l/m 0 min 0 min 0 W/m 32,2 km/h (5 Bft) 95,74 %
28.11.2018 22:56 6,1 C 5,6 C 5,0 C 94 % 1015,1 hPa 0,0 l/m 0 min 0 min 0 W/m 25,7 km/h (4 Bft) 93,48 %
28.11.2018 22:58 6,1 C 5,6 C 5,0 C 94 % 1015,1 hPa 0,0 l/m 0 min 0 min 0 W/m 22,5 km/h (4 Bft) 93,62 %
28.11.2018 23:00 6,1 C 5,6 C 5,0 C 94 % 1015,2 hPa 0,0 l/m 0 min 0 min 0 W/m 19,3 km/h (3 Bft) 91,49 %
28.11.2018 23:02 6,2 C 5,6 C 5,0 C 94 % 1015,1 hPa 0,0 l/m 0 min 0 min 0 W/m 25,7 km/h (4 Bft) 95,74 %
28.11.2018 23:04 6,2 C 6,1 C 5,0 C 94 % 1015,1 hPa 0,0 l/m 0 min 0 min 0 W/m 32,2 km/h (5 Bft) 85,11 %
28.11.2018 23:06 6,2 C 5,6 C 5,0 C 94 % 1015,1 hPa 0,0 l/m 0 min 0 min 0 W/m 22,5 km/h (4 Bft) 89,36 %
28.11.2018 23:08 6,2 C 6,1 C 5,0 C 94 % 1015,1 hPa 0,0 l/m 0 min 0 min 0 W/m 25,7 km/h (4 Bft) 95,74 %
28.11.2018 23:10 6,2 C 6,1 C 5,0 C 94 % 1015,1 hPa 0,0 l/m 0 min 0 min 0 W/m 16,1 km/h (3 Bft) 93,62 %
28.11.2018 23:12 6,2 C 6,1 C 5,0 C 94 % 1015,2 hPa 0,0 l/m 0 min 0 min 0 W/m 22,5 km/h (4 Bft) 95,74 %
28.11.2018 23:14 6,2 C 6,1 C 5,0 C 94 % 1015,2 hPa 0,0 l/m 0 min 0 min 0 W/m 22,5 km/h (4 Bft) 97,87 %
28.11.2018 23:16 6,2 C 6,1 C 5,0 C 94 % 1015,2 hPa 0,0 l/m 0 min 0 min 0 W/m 25,7 km/h (4 Bft) 100,00 %
28.11.2018 23:18 6,2 C 6,1 C 5,0 C 94 % 1015,1 hPa 0,0 l/m 0 min 0 min 0 W/m 25,7 km/h (4 Bft) 97,87 %
28.11.2018 23:20 6,3 C 6,1 C 5,0 C 94 % 1015,2 hPa 0,0 l/m 0 min 0 min 0 W/m 25,7 km/h (4 Bft) 95,65 %
28.11.2018 23:22 6,3 C 6,1 C 5,0 C 94 % 1015,1 hPa 0,0 l/m 0 min 0 min 0 W/m 19,3 km/h (3 Bft) 95,74 %
28.11.2018 23:24 6,3 C 6,1 C 5,0 C 94 % 1015,1 hPa 0,0 l/m 0 min 0 min 0 W/m 22,5 km/h (4 Bft) 95,74 %
28.11.2018 23:26 6,3 C 6,1 C 5,0 C 94 % 1015,0 hPa 0,0 l/m 0 min 0 min 0 W/m 32,2 km/h (5 Bft) 97,87 %
28.11.2018 23:28 6,3 C 6,1 C 5,0 C 94 % 1015,0 hPa 0,0 l/m 0 min 0 min 0 W/m 32,2 km/h (5 Bft) 97,87 %
28.11.2018 23:30 6,3 C 6,1 C 5,0 C 94 % 1015,0 hPa 0,0 l/m 0 min 0 min 0 W/m 35,4 km/h (5 Bft) 97,87 %
28.11.2018 23:32 6,4 C 6,1 C 5,6 C 94 % 1015,0 hPa 0,0 l/m 0 min 0 min 0 W/m 25,7 km/h (4 Bft) 95,65 %
28.11.2018 23:34 6,4 C 6,1 C 5,6 C 94 % 1015,0 hPa 0,0 l/m 0 min 0 min 0 W/m 29,0 km/h (5 Bft) 97,87 %
28.11.2018 23:36 6,4 C 6,1 C 5,6 C 94 % 1014,9 hPa 0,0 l/m 0 min 0 min 0 W/m 38,6 km/h (5 Bft) 95,74 %
28.11.2018 23:38 6,4 C 6,1 C 5,6 C 94 % 1014,8 hPa 0,0 l/m 0 min 0 min 0 W/m 29,0 km/h (5 Bft) 93,75 %
28.11.2018 23:40 6,4 C 6,1 C 5,6 C 94 % 1014,8 hPa 0,0 l/m 0 min 0 min 0 W/m 32,2 km/h (5 Bft) 97,87 %
28.11.2018 23:42 6,4 C 6,1 C 5,6 C 94 % 1014,9 hPa 0,0 l/m 0 min 0 min 0 W/m 29,0 km/h (5 Bft) 97,87 %
28.11.2018 23:44 6,4 C 6,1 C 5,6 C 94 % 1014,9 hPa 0,0 l/m 0 min 0 min 0 W/m 35,4 km/h (5 Bft) 93,48 %
28.11.2018 23:46 6,4 C 6,1 C 5,6 C 94 % 1014,9 hPa 0,0 l/m 0 min 0 min 0 W/m 35,4 km/h (5 Bft) 95,74 %
28.11.2018 23:48 6,4 C 6,1 C 5,6 C 94 % 1014,9 hPa 0,0 l/m 0 min 0 min 0 W/m 38,6 km/h (5 Bft) 95,74 %
28.11.2018 23:50 6,5 C 6,1 C 5,6 C 94 % 1014,9 hPa 0,0 l/m 0 min 0 min 0 W/m 25,7 km/h (4 Bft) 95,74 %
28.11.2018 23:52 6,5 C 6,1 C 5,6 C 94 % 1015,1 hPa 0,0 l/m 0 min 0 min 0 W/m 32,2 km/h (5 Bft) 95,74 %
28.11.2018 23:54 6,5 C 6,1 C 5,6 C 94 % 1014,9 hPa 0,0 l/m 0 min 0 min 0 W/m 29,0 km/h (5 Bft) 93,62 %
28.11.2018 23:56 6,5 C 6,1 C 5,6 C 94 % 1014,9 hPa 0,0 l/m 0 min 0 min 0 W/m 29,0 km/h (5 Bft) 91,30 %
28.11.2018 23:58 6,5 C 6,1 C 5,6 C 94 % 1014,9 hPa 0,0 l/m 0 min 0 min 0 W/m 32,2 km/h (5 Bft) 91,49 %
_ Min-Zeit 00:46 00:00 00:00 13:10 23:38 - - - - 00:32 22:30
Minimum _ 1,7 C 1,1 C 0,6 C 83 % 1014,8 hPa - - - - 12,9 km/h (3 Bft) 85,11 %
_ Max-Zeit 13:48 12:52 13:24 19:00 00:00 03:48 12:40 18:08 12:52 14:46 00:54
Maximum _ 6,6 C 7,2 C 6,1 C 96 % 1018,8 hPa 0,2 l/m 2 min 4 min 185 W/m 54,7 km/h
O (7 Bft)
100,00 %
Durchschnitt _ 4,5 C 4,0 C 3,4 C 89 % 1016,7 hPa #1,2 l/m #40 min. #1:34 h 74 W/m 27,5 km/h (4 Bft) 97,28 %
© 2018 W. Hausmann